IBE0273 LEMD-MUHA

Flight info

Callsign IBE0273
Flight time 9h 59m
Altitude 30000
Route BARDI DCT RIVRO/N0471F360 DCT DIRMA DCT BANAL/M082F360 DCT 43N020W/M082F380 43N030W 42N040W 39N050W/M082F400 35N060W DCT BALOO DCT ANTIG M328 CNNOR/N0469F400 DCT ZFP DCT VKZ DCT EYW DCT CANOA AVERA3
Aircraft A332/H-SDE3GHIJ2J3J5M1RVWXY/LB2D1

Departure

Time 2026-05-07 00:57
Airport Adolfo Suárez Madrid–Barajas Airport (LEMD)

Arrival

Time 2026-05-07 10:56
Airport José Martí International Airport (MUHA)
Time Latitude Longitude Altitude Speed Heading
2026-05-06 23:32 40.49874 -3.56882 1981 ft 0 kts 100°
2026-05-07 00:45 40.49876 -3.56903 1980 ft 4 kts 100°
2026-05-07 00:45 40.49881 -3.56938 1979 ft 4 kts 100°
2026-05-07 00:45 40.49887 -3.56977 1983 ft 4 kts 116°
2026-05-07 00:45 40.49896 -3.56995 1984 ft 5 kts 148°
2026-05-07 00:46 40.49921 -3.57005 1984 ft 5 kts 178°
2026-05-07 00:46 40.49946 -3.57005 1985 ft 4 kts 180°
2026-05-07 00:46 40.49951 -3.57005 1985 ft 2 kts 180°
2026-05-07 00:49 40.49946 -3.57005 1986 ft 3 kts 180°
2026-05-07 00:50 40.49904 -3.57005 1986 ft 10 kts 179°
2026-05-07 00:50 40.49832 -3.57005 1983 ft 11 kts 180°
2026-05-07 00:50 40.49764 -3.57018 1986 ft 8 kts 215°
2026-05-07 00:50 40.49743 -3.57066 1990 ft 7 kts 253°
2026-05-07 00:51 40.49693 -3.57116 1988 ft 13 kts 192°
2026-05-07 00:51 40.49591 -3.57118 1986 ft 18 kts 179°
2026-05-07 00:51 40.49444 -3.57116 1982 ft 22 kts 180°
2026-05-07 00:51 40.49294 -3.57115 1983 ft 20 kts 179°
2026-05-07 00:52 40.49160 -3.57113 1984 ft 18 kts 179°
2026-05-07 00:52 40.49073 -3.57117 1988 ft 9 kts 203°
2026-05-07 00:52 40.49055 -3.57186 1989 ft 11 kts 268°
2026-05-07 00:52 40.49061 -3.57284 1989 ft 10 kts 291°
2026-05-07 00:53 40.49101 -3.57356 1990 ft 11 kts 314°
2026-05-07 00:53 40.49151 -3.57422 1989 ft 9 kts 319°
2026-05-07 00:53 40.49208 -3.57448 1990 ft 9 kts 355°
2026-05-07 00:53 40.49274 -3.57450 1989 ft 9 kts 359°
2026-05-07 00:54 40.49279 -3.57450 1989 ft 0 kts 359°
2026-05-07 00:56 40.49398 -3.57452 1987 ft 44 kts 360°
2026-05-07 00:56 40.49881 -3.57455 1992 ft 96 kts 359°
2026-05-07 00:56 40.50731 -3.57462 1998 ft 143 kts 359°
2026-05-07 00:56 40.51859 -3.57466 2089 ft 175 kts
2026-05-07 00:57 40.53078 -3.57421 2688 ft 177 kts
2026-05-07 00:57 40.54333 -3.57400 3245 ft 183 kts 359°
2026-05-07 00:57 40.55620 -3.57457 3857 ft 184 kts 356°
2026-05-07 00:57 40.56917 -3.57567 4165 ft 191 kts 358°
2026-05-07 00:58 40.58271 -3.57564 4430 ft 198 kts
2026-05-07 00:58 40.59673 -3.57504 4731 ft 206 kts
2026-05-07 00:58 40.61067 -3.56911 4962 ft 216 kts 25°
2026-05-07 00:58 40.62452 -3.56034 5229 ft 227 kts 25°
2026-05-07 00:59 40.65630 -3.55558 5815 ft 244 kts 352°
2026-05-07 00:59 40.67372 -3.55725 6033 ft 259 kts 357°
2026-05-07 00:59 40.69217 -3.55762 6438 ft 269 kts 359°
2026-05-07 01:00 40.71096 -3.55769 7030 ft 271 kts 359°
2026-05-07 01:00 40.72993 -3.55770 7620 ft 274 kts 359°
2026-05-07 01:00 40.74911 -3.55825 8230 ft 277 kts 353°
2026-05-07 01:00 40.76756 -3.56518 8831 ft 278 kts 330°
2026-05-07 01:01 40.78205 -3.58185 9420 ft 279 kts 304°
2026-05-07 01:01 40.78942 -3.60545 10002 ft 282 kts 278°
2026-05-07 01:01 40.78876 -3.63163 10329 ft 295 kts 260°
2026-05-07 01:01 40.78426 -3.65874 10548 ft 310 kts 257°
2026-05-07 01:02 40.77903 -3.68665 10771 ft 325 kts 256°
2026-05-07 01:02 40.77354 -3.71628 10991 ft 340 kts 257°
2026-05-07 01:02 40.76796 -3.74718 11201 ft 353 kts 257°
2026-05-07 01:02 40.76224 -3.77927 11468 ft 364 kts 258°
2026-05-07 01:03 40.75645 -3.81208 11873 ft 370 kts 257°
2026-05-07 01:03 40.75059 -3.84534 12333 ft 375 kts 257°
2026-05-07 01:03 40.74467 -3.87896 12791 ft 378 kts 257°
2026-05-07 01:03 40.73870 -3.91286 13275 ft 381 kts 258°
2026-05-07 01:04 40.73267 -3.94708 13741 ft 385 kts 257°
2026-05-07 01:04 40.72658 -3.98155 14197 ft 387 kts 257°
2026-05-07 01:04 40.72046 -4.01612 14706 ft 387 kts 258°
2026-05-07 01:04 40.71433 -4.05065 15249 ft 388 kts 258°
2026-05-07 01:05 40.70818 -4.08529 15737 ft 388 kts 258°
2026-05-07 01:05 40.70202 -4.11991 16236 ft 389 kts 258°
2026-05-07 01:05 40.69593 -4.15406 16703 ft 390 kts 258°
2026-05-07 01:05 40.68960 -4.18952 17192 ft 391 kts 258°
2026-05-07 01:06 40.68335 -4.22443 17694 ft 392 kts 258°
2026-05-07 01:06 40.67708 -4.25946 18140 ft 393 kts 258°
2026-05-07 01:06 40.67077 -4.29459 18559 ft 395 kts 258°
2026-05-07 01:06 40.66443 -4.32980 18949 ft 396 kts 258°
2026-05-07 01:07 40.65806 -4.36513 19327 ft 397 kts 258°
2026-05-07 01:07 40.65167 -4.40053 19739 ft 398 kts 258°
2026-05-07 01:07 40.64525 -4.43601 20137 ft 399 kts 258°
2026-05-07 01:07 40.63880 -4.47158 20521 ft 400 kts 258°
2026-05-07 01:08 40.63229 -4.50722 20890 ft 401 kts 257°
2026-05-07 01:08 40.62373 -4.54225 21266 ft 404 kts 248°
2026-05-07 01:08 40.61026 -4.57476 21633 ft 408 kts 238°
2026-05-07 01:08 40.59373 -4.60523 21938 ft 411 kts 235°
2026-05-07 01:09 40.57653 -4.63534 22275 ft 412 kts 235°
2026-05-07 01:09 40.55921 -4.66549 22636 ft 414 kts 235°
2026-05-07 01:09 40.54187 -4.69577 22988 ft 415 kts 235°
2026-05-07 01:09 40.52453 -4.72612 23329 ft 416 kts 235°
2026-05-07 01:10 40.50714 -4.75657 23647 ft 417 kts 235°
2026-05-07 01:10 40.48971 -4.78710 23907 ft 419 kts 235°
2026-05-07 01:10 40.47322 -4.81801 24165 ft 419 kts 240°
2026-05-07 01:10 40.45979 -4.85191 24408 ft 418 kts 249°
2026-05-07 01:11 40.45088 -4.88819 24658 ft 418 kts 258°
2026-05-07 01:11 40.44681 -4.92597 24917 ft 419 kts 267°
2026-05-07 01:11 40.44763 -4.96423 25161 ft 420 kts 275°
2026-05-07 01:11 40.45130 -5.00247 25333 ft 424 kts 277°
2026-05-07 01:12 40.45554 -5.04082 25585 ft 425 kts 277°
2026-05-07 01:12 40.45980 -5.07930 25857 ft 426 kts 277°
2026-05-07 01:12 40.46400 -5.11788 26103 ft 427 kts 277°
2026-05-07 01:12 40.46817 -5.15658 26340 ft 429 kts 277°
2026-05-07 01:13 40.47230 -5.19547 26581 ft 430 kts 277°
2026-05-07 01:13 40.47642 -5.23444 26816 ft 431 kts 277°
2026-05-07 01:13 40.48053 -5.27353 27061 ft 433 kts 277°
2026-05-07 01:13 40.48462 -5.31272 27314 ft 434 kts 277°
2026-05-07 01:14 40.48872 -5.35207 27488 ft 436 kts 277°
2026-05-07 01:14 40.49283 -5.39173 27647 ft 439 kts 277°
2026-05-07 01:14 40.49695 -5.43153 27881 ft 440 kts 277°
2026-05-07 01:14 40.50105 -5.47137 28101 ft 441 kts 277°
2026-05-07 01:15 40.50516 -5.51136 28344 ft 442 kts 277°
2026-05-07 01:15 40.50926 -5.55144 28553 ft 443 kts 277°
2026-05-07 01:15 40.51336 -5.59166 28778 ft 445 kts 277°
2026-05-07 01:15 40.51745 -5.63197 28982 ft 446 kts 277°
2026-05-07 01:16 40.52155 -5.67242 29215 ft 447 kts 277°
2026-05-07 01:16 40.52562 -5.71283 29516 ft 446 kts 277°
2026-05-07 01:16 40.52968 -5.75321 29747 ft 446 kts 277°
2026-05-07 01:16 40.53374 -5.79364 30042 ft 446 kts 277°
2026-05-07 01:17 40.53776 -5.83397 30321 ft 444 kts 277°
2026-05-07 01:17 40.54176 -5.87423 30569 ft 444 kts 277°
2026-05-07 01:17 40.54575 -5.91444 30803 ft 443 kts 277°
2026-05-07 01:17 40.54971 -5.95459 31034 ft 443 kts 276°
2026-05-07 01:18 40.55366 -5.99469 31261 ft 442 kts 276°
2026-05-07 01:18 40.55759 -6.03479 31494 ft 442 kts 276°
2026-05-07 01:18 40.56144 -6.07427 31732 ft 441 kts 276°
2026-05-07 01:18 40.56538 -6.11478 31920 ft 441 kts 276°
2026-05-07 01:19 40.56922 -6.15433 32059 ft 442 kts 276°
2026-05-07 01:19 40.57309 -6.19446 32266 ft 442 kts 276°
2026-05-07 01:19 40.57695 -6.23452 32503 ft 441 kts 276°
2026-05-07 01:19 40.58078 -6.27449 32724 ft 440 kts 276°
2026-05-07 01:20 40.58459 -6.31443 32937 ft 440 kts 276°
2026-05-07 01:20 40.58838 -6.35435 33149 ft 439 kts 276°
2026-05-07 01:20 40.59215 -6.39430 33333 ft 439 kts 276°
2026-05-07 01:20 40.59590 -6.43416 33537 ft 439 kts 276°
2026-05-07 01:21 40.59964 -6.47394 33721 ft 438 kts 276°
2026-05-07 01:21 40.60710 -6.55385 33959 ft 440 kts 276°
2026-05-07 01:21 40.61082 -6.59388 34129 ft 440 kts 276°
2026-05-07 01:22 40.61452 -6.63376 34287 ft 439 kts 276°
2026-05-07 01:22 40.61820 -6.67366 34423 ft 439 kts 276°
2026-05-07 01:22 40.62186 -6.71353 34554 ft 439 kts 276°
2026-05-07 01:22 40.62557 -6.75341 34683 ft 439 kts 276°
2026-05-07 01:23 40.62931 -6.79333 34793 ft 439 kts 276°
2026-05-07 01:23 40.63306 -6.83318 34929 ft 439 kts 276°
2026-05-07 01:23 40.63681 -6.87314 35025 ft 440 kts 276°
2026-05-07 01:24 40.64428 -6.95313 35233 ft 440 kts 276°
2026-05-07 01:24 40.64793 -6.99259 35347 ft 440 kts 276°
2026-05-07 01:24 40.65162 -7.03263 35467 ft 440 kts 276°
2026-05-07 01:24 40.65529 -7.07261 35584 ft 440 kts 276°
2026-05-07 01:25 40.65895 -7.11262 35690 ft 440 kts 276°
2026-05-07 01:25 40.66622 -7.19263 35891 ft 440 kts 276°
2026-05-07 01:26 40.67344 -7.27279 36013 ft 442 kts 276°
2026-05-07 01:26 40.68067 -7.35366 36024 ft 445 kts 276°
2026-05-07 01:27 40.68785 -7.43457 36019 ft 444 kts 276°
2026-05-07 01:27 40.69497 -7.51538 36018 ft 444 kts 276°
2026-05-07 01:28 40.70203 -7.59622 36015 ft 444 kts 276°
2026-05-07 01:28 40.70903 -7.67714 36019 ft 444 kts 276°
2026-05-07 01:29 40.71599 -7.75811 36024 ft 445 kts 276°
2026-05-07 01:29 40.72288 -7.83909 36023 ft 445 kts 275°
2026-05-07 01:30 40.72972 -7.92008 36020 ft 445 kts 275°
2026-05-07 01:30 40.73646 -8.00056 36027 ft 445 kts 275°
2026-05-07 01:31 40.74319 -8.08158 36027 ft 445 kts 275°
2026-05-07 01:31 40.74986 -8.16263 36021 ft 445 kts 275°
2026-05-07 01:32 40.75647 -8.24371 36029 ft 445 kts 275°
2026-05-07 01:32 40.76303 -8.32477 36026 ft 445 kts 275°
2026-05-07 01:33 40.76953 -8.40595 36030 ft 445 kts 275°
2026-05-07 01:33 40.77494 -8.47396 36030 ft 445 kts 275°
2026-05-07 01:34 40.78129 -8.55467 36038 ft 445 kts 275°
2026-05-07 01:34 40.78764 -8.63596 36022 ft 445 kts 275°
2026-05-07 01:35 40.79394 -8.71723 36023 ft 445 kts 275°
2026-05-07 01:35 40.80123 -8.81238 36027 ft 446 kts 275°
2026-05-07 01:36 40.80637 -8.88017 36031 ft 447 kts 275°
2026-05-07 01:36 40.81252 -8.96181 36037 ft 447 kts 275°
2026-05-07 01:37 40.81860 -9.04340 36043 ft 447 kts 275°
2026-05-07 01:37 40.82463 -9.12511 36052 ft 447 kts 275°
2026-05-07 01:38 40.83060 -9.20684 36053 ft 447 kts 275°
2026-05-07 01:38 40.83652 -9.28868 36060 ft 448 kts 275°
2026-05-07 01:39 40.84239 -9.37051 36055 ft 448 kts 274°
2026-05-07 01:39 40.84819 -9.45237 36062 ft 448 kts 274°
2026-05-07 01:40 40.85978 -9.53305 36059 ft 448 kts 284°
2026-05-07 01:40 40.87740 -9.61209 36060 ft 449 kts 286°
2026-05-07 01:41 40.89607 -9.69083 36069 ft 449 kts 286°
2026-05-07 01:41 40.91476 -9.76960 36070 ft 449 kts 286°
2026-05-07 01:42 40.93325 -9.84840 36076 ft 449 kts 286°
2026-05-07 01:42 40.95163 -9.92737 36072 ft 450 kts 286°
2026-05-07 01:43 40.96996 -10.00648 36076 ft 450 kts 286°
2026-05-07 01:43 40.98811 -10.08506 36073 ft 450 kts 286°
2026-05-07 01:44 41.00645 -10.16478 36079 ft 450 kts 285°
2026-05-07 01:44 41.02450 -10.24345 36075 ft 449 kts 286°
2026-05-07 01:45 41.04259 -10.32255 36083 ft 449 kts 286°
2026-05-07 01:45 41.06060 -10.40167 36084 ft 448 kts 286°
2026-05-07 01:46 41.07857 -10.48082 36091 ft 449 kts 285°
2026-05-07 01:46 41.09649 -10.56007 36090 ft 449 kts 285°
2026-05-07 01:47 41.11438 -10.63946 36093 ft 449 kts 286°
2026-05-07 01:47 41.13220 -10.71879 36087 ft 449 kts 285°
2026-05-07 01:48 41.14995 -10.79815 36095 ft 449 kts 285°
2026-05-07 01:48 41.16765 -10.87753 36095 ft 449 kts 285°
2026-05-07 01:49 41.18529 -10.95698 36101 ft 449 kts 286°
2026-05-07 01:49 41.20286 -11.03633 36100 ft 447 kts 285°
2026-05-07 01:50 41.22033 -11.11560 36100 ft 447 kts 285°
2026-05-07 01:50 41.23776 -11.19495 36109 ft 448 kts 285°
2026-05-07 01:51 41.25518 -11.27450 36101 ft 449 kts 285°
2026-05-07 01:51 41.27256 -11.35421 36097 ft 449 kts 285°
2026-05-07 01:52 41.28985 -11.43380 36095 ft 448 kts 285°
2026-05-07 01:52 41.30708 -11.51334 36100 ft 448 kts 285°
2026-05-07 01:53 41.32424 -11.59289 36101 ft 448 kts 285°
2026-05-07 01:53 41.34124 -11.67200 36103 ft 448 kts 285°
2026-05-07 01:54 41.35831 -11.75173 36116 ft 448 kts 285°
2026-05-07 01:54 41.37531 -11.83145 36118 ft 448 kts 285°
2026-05-07 01:55 41.39228 -11.91133 36114 ft 449 kts 285°
2026-05-07 01:55 41.40923 -11.99142 36117 ft 450 kts 285°
2026-05-07 01:56 41.42614 -12.07157 36119 ft 449 kts 285°
2026-05-07 01:56 41.44297 -12.15167 36120 ft 448 kts 285°
2026-05-07 01:57 41.45971 -12.23170 36119 ft 448 kts 285°
2026-05-07 01:57 41.47641 -12.31179 36119 ft 448 kts 285°
2026-05-07 01:58 41.49306 -12.39198 36129 ft 448 kts 285°
2026-05-07 01:58 41.50963 -12.47208 36126 ft 448 kts 285°
2026-05-07 01:59 41.52614 -12.55220 36127 ft 448 kts 285°
2026-05-07 01:59 41.54264 -12.63258 36130 ft 449 kts 285°
2026-05-07 02:00 41.55907 -12.71296 36129 ft 449 kts 285°
2026-05-07 02:00 41.57545 -12.79339 36126 ft 449 kts 285°
2026-05-07 02:01 41.59176 -12.87374 36129 ft 448 kts 285°
2026-05-07 02:01 41.60799 -12.95408 36131 ft 448 kts 285°
2026-05-07 02:02 41.62417 -13.03449 36131 ft 448 kts 285°
2026-05-07 02:02 41.64030 -13.11495 36136 ft 448 kts 285°
2026-05-07 02:03 41.65638 -13.19541 36138 ft 448 kts 286°
2026-05-07 02:03 41.67238 -13.27592 36141 ft 448 kts 286°
2026-05-07 02:04 41.68824 -13.35592 36142 ft 448 kts 286°
2026-05-07 02:04 41.70414 -13.43653 36143 ft 448 kts 286°
2026-05-07 02:05 41.71997 -13.51713 36151 ft 448 kts 286°
2026-05-07 02:05 41.73574 -13.59771 36147 ft 447 kts 286°
2026-05-07 02:06 41.75143 -13.67823 36140 ft 447 kts 286°
2026-05-07 02:06 41.76706 -13.75877 36148 ft 447 kts 286°
2026-05-07 02:07 41.78264 -13.83941 36152 ft 447 kts 286°
2026-05-07 02:07 41.80591 -13.96039 36151 ft 446 kts 287°
2026-05-07 02:08 41.82131 -14.04088 36154 ft 446 kts 287°
2026-05-07 02:08 41.83665 -14.12137 36152 ft 446 kts 287°
2026-05-07 02:09 41.85193 -14.20194 36152 ft 446 kts 287°
2026-05-07 02:09 41.86713 -14.28239 36151 ft 444 kts 287°
2026-05-07 02:10 41.88221 -14.36252 36157 ft 443 kts 287°
2026-05-07 02:10 41.89722 -14.44261 36157 ft 443 kts 287°
2026-05-07 02:11 41.91208 -14.52221 36163 ft 443 kts 287°
2026-05-07 02:11 41.92698 -14.60242 36149 ft 442 kts 288°
2026-05-07 02:12 41.94174 -14.68222 36160 ft 439 kts 288°
2026-05-07 02:12 41.95640 -14.76174 36156 ft 439 kts 288°
2026-05-07 02:13 41.97100 -14.84132 36163 ft 439 kts 288°
2026-05-07 02:13 41.98556 -14.92094 36164 ft 439 kts 288°
2026-05-07 02:14 42.00011 -15.00039 36163 ft 436 kts 289°
2026-05-07 02:14 42.01675 -15.07837 36163 ft 433 kts 291°
2026-05-07 02:15 42.03446 -15.15569 36162 ft 433 kts 291°
2026-05-07 02:15 42.05206 -15.23306 36163 ft 433 kts 291°
2026-05-07 02:16 42.06942 -15.31061 36163 ft 433 kts 291°
2026-05-07 02:16 42.08661 -15.38820 36163 ft 433 kts 291°
2026-05-07 02:17 42.10375 -15.46589 36165 ft 433 kts 291°
2026-05-07 02:17 42.12072 -15.54304 36165 ft 433 kts 291°
2026-05-07 02:18 42.13776 -15.62081 36165 ft 433 kts 291°
2026-05-07 02:18 42.15472 -15.69846 36168 ft 431 kts 291°
2026-05-07 02:19 42.17153 -15.77576 36165 ft 429 kts 291°
2026-05-07 02:19 42.18829 -15.85298 36171 ft 429 kts 291°
2026-05-07 02:20 42.20499 -15.93028 36171 ft 429 kts 291°
2026-05-07 02:20 42.22165 -16.00763 36151 ft 429 kts 291°
2026-05-07 02:21 42.23552 -16.07230 36178 ft 428 kts 291°
2026-05-07 02:21 42.25201 -16.14941 36176 ft 428 kts 291°
2026-05-07 02:22 42.26834 -16.22605 36178 ft 428 kts 291°
2026-05-07 02:22 42.28474 -16.30327 36179 ft 428 kts 291°
2026-05-07 02:23 42.30107 -16.38049 36178 ft 428 kts 290°
2026-05-07 02:23 42.31735 -16.45776 36179 ft 427 kts 290°
2026-05-07 02:24 42.33357 -16.53502 36182 ft 427 kts 290°
2026-05-07 02:24 42.34974 -16.61231 36181 ft 427 kts 290°
2026-05-07 02:25 42.36586 -16.68964 36181 ft 427 kts 290°
2026-05-07 02:25 42.38191 -16.76699 36183 ft 427 kts 290°
2026-05-07 02:26 42.39790 -16.84428 36190 ft 427 kts 290°
2026-05-07 02:26 42.41383 -16.92157 36189 ft 427 kts 290°
2026-05-07 02:27 42.42972 -16.99897 36189 ft 427 kts 290°
2026-05-07 02:27 42.44554 -17.07635 36185 ft 427 kts 290°
2026-05-07 02:28 42.46131 -17.15377 36192 ft 426 kts 290°
2026-05-07 02:28 42.47703 -17.23122 36195 ft 426 kts 290°
2026-05-07 02:29 42.49259 -17.30817 36195 ft 426 kts 290°
2026-05-07 02:29 42.50821 -17.38571 36192 ft 427 kts 290°
2026-05-07 02:30 42.52379 -17.46330 36194 ft 426 kts 290°
2026-05-07 02:30 42.53926 -17.54074 36198 ft 426 kts 290°
2026-05-07 02:31 42.55468 -17.61823 36200 ft 426 kts 290°
2026-05-07 02:31 42.57006 -17.69578 36200 ft 426 kts 290°
2026-05-07 02:32 42.58538 -17.77334 36191 ft 425 kts 290°
2026-05-07 02:32 42.60059 -17.85067 36197 ft 423 kts 290°
2026-05-07 02:33 42.61573 -17.92791 36207 ft 423 kts 290°
2026-05-07 02:33 42.63083 -18.00523 36201 ft 424 kts 290°
2026-05-07 02:34 42.64586 -18.08254 36209 ft 424 kts 290°
2026-05-07 02:34 42.66084 -18.15982 36206 ft 422 kts 290°
2026-05-07 02:35 42.67567 -18.23677 36208 ft 421 kts 290°
2026-05-07 02:35 42.69046 -18.31373 36206 ft 421 kts 290°
2026-05-07 02:36 42.70521 -18.39076 36207 ft 421 kts 290°
2026-05-07 02:36 42.71980 -18.46728 36208 ft 421 kts 290°
2026-05-07 02:37 42.73441 -18.54421 36205 ft 420 kts 290°
2026-05-07 02:37 42.74895 -18.62111 36204 ft 420 kts 290°
2026-05-07 02:38 42.76345 -18.69803 36211 ft 420 kts 290°
2026-05-07 02:38 42.77789 -18.77501 36207 ft 420 kts 290°
2026-05-07 02:39 42.79229 -18.85204 36207 ft 420 kts 290°
2026-05-07 02:39 42.80663 -18.92910 36212 ft 420 kts 290°
2026-05-07 02:40 42.82092 -19.00617 36226 ft 420 kts 290°
2026-05-07 02:40 42.83517 -19.08337 36208 ft 420 kts 290°
2026-05-07 02:41 42.84936 -19.16057 36216 ft 420 kts 290°
2026-05-07 02:41 42.86346 -19.23766 36215 ft 419 kts 290°
2026-05-07 02:42 42.87751 -19.31465 36220 ft 419 kts 290°
2026-05-07 02:42 42.89150 -19.39168 36217 ft 419 kts 290°
2026-05-07 02:43 42.90545 -19.46880 36185 ft 418 kts 289°
2026-05-07 02:43 42.91929 -19.54572 36238 ft 417 kts 289°
2026-05-07 02:44 42.93309 -19.62261 36219 ft 417 kts 289°
2026-05-07 02:44 42.94685 -19.69958 36219 ft 418 kts 289°
2026-05-07 02:45 42.96045 -19.77610 36219 ft 418 kts 289°
2026-05-07 02:45 42.97409 -19.85312 36215 ft 417 kts 289°
2026-05-07 02:46 42.98765 -19.93007 36219 ft 416 kts 289°
2026-05-07 02:46 42.99920 -20.00777 36223 ft 422 kts 282°
2026-05-07 02:47 43.00404 -20.08782 36221 ft 424 kts 280°
2026-05-07 02:47 43.00746 -20.16823 36219 ft 424 kts 279°
2026-05-07 02:48 43.01058 -20.24837 36224 ft 422 kts 279°
2026-05-07 02:48 43.01377 -20.32839 36222 ft 422 kts 279°
2026-05-07 02:49 43.01699 -20.40839 36224 ft 422 kts 279°
2026-05-07 02:49 43.02018 -20.48842 36219 ft 421 kts 278°
2026-05-07 02:50 43.02330 -20.56828 36218 ft 420 kts 278°
2026-05-07 02:50 43.02635 -20.64804 36232 ft 420 kts 278°
2026-05-07 02:51 43.02936 -20.72784 36226 ft 420 kts 278°
2026-05-07 02:51 43.03230 -20.80759 36208 ft 420 kts 278°
2026-05-07 02:52 43.03519 -20.88734 36229 ft 420 kts 278°
2026-05-07 02:52 43.03803 -20.96712 36238 ft 420 kts 278°
2026-05-07 02:53 43.04080 -21.04686 36232 ft 420 kts 278°
2026-05-07 02:53 43.04350 -21.12592 36232 ft 419 kts 278°
2026-05-07 02:54 43.04615 -21.20548 36224 ft 419 kts 277°
2026-05-07 02:54 43.04876 -21.28512 36229 ft 420 kts 277°
2026-05-07 02:55 43.05133 -21.36492 36229 ft 420 kts 277°
2026-05-07 02:55 43.05383 -21.44468 36231 ft 420 kts 277°
2026-05-07 02:56 43.05627 -21.52447 36232 ft 420 kts 277°
2026-05-07 02:56 43.05866 -21.60422 36230 ft 420 kts 277°
2026-05-07 02:57 43.06100 -21.68415 36230 ft 421 kts 276°
2026-05-07 02:57 43.06328 -21.76416 36230 ft 421 kts 276°
2026-05-07 02:58 43.06551 -21.84420 36232 ft 421 kts 276°
2026-05-07 02:58 43.06768 -21.92417 36230 ft 421 kts 276°
2026-05-07 02:59 43.06979 -22.00414 36227 ft 420 kts 276°
2026-05-07 02:59 43.07185 -22.08392 36230 ft 419 kts 276°
2026-05-07 03:00 43.07383 -22.16307 36230 ft 419 kts 276°
2026-05-07 03:00 43.07578 -22.24281 36233 ft 419 kts 276°
2026-05-07 03:01 43.07767 -22.32249 36232 ft 419 kts 276°
2026-05-07 03:01 43.07950 -22.40216 36230 ft 419 kts 276°
2026-05-07 03:02 43.08127 -22.48190 36230 ft 419 kts 276°
2026-05-07 03:02 43.08299 -22.56161 36230 ft 419 kts 276°
2026-05-07 03:03 43.08466 -22.64136 36229 ft 419 kts 276°
2026-05-07 03:03 43.08627 -22.72109 36231 ft 419 kts 275°
2026-05-07 03:04 43.08781 -22.80056 36233 ft 416 kts 275°
2026-05-07 03:04 43.08929 -22.87948 36231 ft 414 kts 275°
2026-05-07 03:05 43.09073 -22.95827 36233 ft 415 kts 275°
2026-05-07 03:05 43.09211 -23.03712 36233 ft 415 kts 275°
2026-05-07 03:06 43.09343 -23.11596 36232 ft 415 kts 275°
2026-05-07 03:06 43.09469 -23.19473 36230 ft 413 kts 275°
2026-05-07 03:07 43.09589 -23.27306 36233 ft 412 kts 275°
2026-05-07 03:07 43.09705 -23.35136 36228 ft 412 kts 275°
2026-05-07 03:08 43.09815 -23.42967 36232 ft 412 kts 275°
2026-05-07 03:08 43.09920 -23.50796 36245 ft 412 kts 274°
2026-05-07 03:09 43.10017 -23.58561 36233 ft 410 kts 274°
2026-05-07 03:09 43.10110 -23.66345 36232 ft 409 kts 274°
2026-05-07 03:10 43.10199 -23.74126 36235 ft 409 kts 274°
2026-05-07 03:10 43.10282 -23.81908 36234 ft 409 kts 274°
2026-05-07 03:11 43.10359 -23.89688 36232 ft 409 kts 274°
2026-05-07 03:11 43.10419 -23.96155 36231 ft 408 kts 274°
2026-05-07 03:12 43.10486 -24.03893 36233 ft 406 kts 274°
2026-05-07 03:12 43.10548 -24.11614 36237 ft 406 kts 274°
2026-05-07 03:13 43.10605 -24.19337 36238 ft 406 kts 274°
2026-05-07 03:13 43.10657 -24.27061 36233 ft 406 kts 274°
2026-05-07 03:14 43.10704 -24.34782 36234 ft 405 kts 273°
2026-05-07 03:15 43.10762 -24.46288 36234 ft 401 kts 273°
2026-05-07 03:15 43.10796 -24.53925 36234 ft 401 kts 273°
2026-05-07 03:16 43.10824 -24.61564 36234 ft 401 kts 273°
2026-05-07 03:16 43.10848 -24.69206 36230 ft 401 kts 273°
2026-05-07 03:17 43.10866 -24.76839 36228 ft 401 kts 272°
2026-05-07 03:17 43.10878 -24.84455 36229 ft 400 kts 272°
2026-05-07 03:18 43.10886 -24.92067 36230 ft 400 kts 272°
2026-05-07 03:18 43.10889 -24.99680 36230 ft 400 kts 272°
2026-05-07 03:19 43.10887 -25.07237 36227 ft 400 kts 272°
2026-05-07 03:19 43.10879 -25.14848 36228 ft 399 kts 272°
2026-05-07 03:20 43.10867 -25.22438 36230 ft 399 kts 271°
2026-05-07 03:20 43.10849 -25.30023 36227 ft 398 kts 271°
2026-05-07 03:21 43.10827 -25.37603 36225 ft 398 kts 271°
2026-05-07 03:21 43.10800 -25.45178 36222 ft 398 kts 271°
2026-05-07 03:22 43.10768 -25.52752 36221 ft 398 kts 271°
2026-05-07 03:22 43.10730 -25.60308 36222 ft 397 kts 271°
2026-05-07 03:23 43.10688 -25.67854 36228 ft 396 kts 271°
2026-05-07 03:23 43.10641 -25.75400 36218 ft 397 kts 271°
2026-05-07 03:24 43.10589 -25.82946 36221 ft 397 kts 271°
2026-05-07 03:24 43.10532 -25.90493 36223 ft 397 kts 271°
2026-05-07 03:25 43.10470 -25.98023 36214 ft 395 kts 270°
2026-05-07 03:25 43.10404 -26.05542 36227 ft 395 kts 270°
2026-05-07 03:26 43.10332 -26.13062 36223 ft 396 kts 270°
2026-05-07 03:26 43.10256 -26.20540 36221 ft 396 kts 270°
2026-05-07 03:27 43.10175 -26.28068 36222 ft 396 kts 270°
2026-05-07 03:27 43.10088 -26.35598 36220 ft 396 kts 270°
2026-05-07 03:28 43.09997 -26.43127 36219 ft 396 kts 270°
2026-05-07 03:28 43.09900 -26.50654 36216 ft 396 kts 270°
2026-05-07 03:29 43.09799 -26.58183 36221 ft 396 kts 270°
2026-05-07 03:29 43.09693 -26.65716 36217 ft 396 kts 270°
2026-05-07 03:30 43.09582 -26.73244 36212 ft 395 kts 269°
2026-05-07 03:30 43.09466 -26.80752 36213 ft 395 kts 269°
2026-05-07 03:31 43.09345 -26.88260 36214 ft 395 kts 269°
2026-05-07 03:31 43.09220 -26.95783 36218 ft 396 kts 269°
2026-05-07 03:32 43.09089 -27.03322 36215 ft 397 kts 269°
2026-05-07 03:32 43.08952 -27.10864 36209 ft 396 kts 269°
2026-05-07 03:33 43.08811 -27.18393 36214 ft 395 kts 269°
2026-05-07 03:33 43.08666 -27.25914 36210 ft 395 kts 269°
2026-05-07 03:34 43.08515 -27.33435 36214 ft 395 kts 269°
2026-05-07 03:34 43.08360 -27.40953 36206 ft 396 kts 269°
2026-05-07 03:35 43.08200 -27.48474 36210 ft 396 kts 268°
2026-05-07 03:35 43.08035 -27.55990 36206 ft 395 kts 268°
2026-05-07 03:36 43.07864 -27.63503 36206 ft 395 kts 268°
2026-05-07 03:36 43.07691 -27.70967 36201 ft 395 kts 268°
2026-05-07 03:37 43.07511 -27.78491 36201 ft 397 kts 268°
2026-05-07 03:37 43.07325 -27.86041 36201 ft 398 kts 268°
2026-05-07 03:38 43.07134 -27.93593 36201 ft 397 kts 268°
2026-05-07 03:38 43.06938 -28.01147 36199 ft 397 kts 268°
2026-05-07 03:39 43.06738 -28.08697 36200 ft 397 kts 268°
2026-05-07 03:39 43.06532 -28.16245 36197 ft 397 kts 268°
2026-05-07 03:40 43.06321 -28.23793 36196 ft 397 kts 268°
2026-05-07 03:40 43.06106 -28.31342 36194 ft 397 kts 268°
2026-05-07 03:41 43.05885 -28.38897 36195 ft 398 kts 268°
2026-05-07 03:41 43.05660 -28.46449 36196 ft 398 kts 268°
2026-05-07 03:42 43.05429 -28.54003 36192 ft 398 kts 268°
2026-05-07 03:42 43.05194 -28.61555 36193 ft 398 kts 268°
2026-05-07 03:43 43.04953 -28.69112 36192 ft 398 kts 267°
2026-05-07 03:43 43.04707 -28.76663 36189 ft 397 kts 267°
2026-05-07 03:44 43.04457 -28.84212 36186 ft 397 kts 267°
2026-05-07 03:44 43.04203 -28.91708 36185 ft 398 kts 267°
2026-05-07 03:45 43.03941 -28.99309 36187 ft 398 kts 267°
2026-05-07 03:45 43.03676 -29.06857 36186 ft 397 kts 267°
2026-05-07 03:46 43.03406 -29.14390 36186 ft 397 kts 267°
2026-05-07 03:46 43.03133 -29.21874 36183 ft 397 kts 267°
2026-05-07 03:47 43.02854 -29.29403 36185 ft 397 kts 267°
2026-05-07 03:47 43.02569 -29.36931 36185 ft 397 kts 267°
2026-05-07 03:48 43.02280 -29.44463 36185 ft 397 kts 266°
2026-05-07 03:48 43.01985 -29.52005 36178 ft 397 kts 266°
2026-05-07 03:49 43.01685 -29.59541 36176 ft 397 kts 266°
2026-05-07 03:49 43.01381 -29.67075 36175 ft 397 kts 266°
2026-05-07 03:50 43.01071 -29.74612 36176 ft 397 kts 266°
2026-05-07 03:50 43.00757 -29.82144 36173 ft 397 kts 266°
2026-05-07 03:51 43.00437 -29.89677 36172 ft 397 kts 266°
2026-05-07 03:51 43.00113 -29.97202 36173 ft 397 kts 266°
2026-05-07 03:52 42.99747 -30.04722 36173 ft 397 kts 265°
2026-05-07 03:52 42.99323 -30.12235 36167 ft 397 kts 265°
2026-05-07 03:53 42.98889 -30.19699 36170 ft 397 kts 265°
2026-05-07 03:53 42.98454 -30.27213 36197 ft 397 kts 265°
2026-05-07 03:54 42.98017 -30.34739 36171 ft 398 kts 265°
2026-05-07 03:54 42.97575 -30.42284 36170 ft 399 kts 265°
2026-05-07 03:55 42.97128 -30.49831 36165 ft 399 kts 265°
2026-05-07 03:55 42.96675 -30.57380 36165 ft 399 kts 265°
2026-05-07 03:56 42.96217 -30.64925 36164 ft 399 kts 265°
2026-05-07 03:56 42.95754 -30.72468 36165 ft 398 kts 265°
2026-05-07 03:57 42.95288 -30.79995 36168 ft 398 kts 264°
2026-05-07 03:57 42.94816 -30.87531 36168 ft 398 kts 264°
2026-05-07 03:58 42.94339 -30.95061 36170 ft 398 kts 264°
2026-05-07 03:58 42.93860 -31.02546 36170 ft 399 kts 264°
2026-05-07 03:59 42.93373 -31.10081 36173 ft 399 kts 264°
2026-05-07 03:59 42.92880 -31.17621 36183 ft 399 kts 264°
2026-05-07 04:00 42.92382 -31.25179 36181 ft 401 kts 264°
2026-05-07 04:00 42.91877 -31.32749 36180 ft 401 kts 264°
2026-05-07 04:01 42.91367 -31.40316 36183 ft 401 kts 264°
2026-05-07 04:01 42.90936 -31.46667 36185 ft 401 kts 264°
2026-05-07 04:02 42.90417 -31.54244 36191 ft 401 kts 264°
2026-05-07 04:02 42.89892 -31.61824 36193 ft 402 kts 264°
2026-05-07 04:03 42.89366 -31.69353 36194 ft 402 kts 264°
2026-05-07 04:03 42.88831 -31.76934 36189 ft 402 kts 264°
2026-05-07 04:04 42.88291 -31.84513 36202 ft 402 kts 264°
2026-05-07 04:04 42.87745 -31.92094 36205 ft 402 kts 264°
2026-05-07 04:05 42.87195 -31.99670 36208 ft 402 kts 264°
2026-05-07 04:05 42.86640 -32.07256 36214 ft 403 kts 263°
2026-05-07 04:06 42.86076 -32.14878 36205 ft 405 kts 263°
2026-05-07 04:06 42.85507 -32.22511 36213 ft 405 kts 263°
2026-05-07 04:07 42.84931 -32.30153 36220 ft 405 kts 263°
2026-05-07 04:07 42.84351 -32.37792 36223 ft 405 kts 263°
2026-05-07 04:08 42.83766 -32.45427 36221 ft 405 kts 263°
2026-05-07 04:08 42.83175 -32.53066 36216 ft 405 kts 263°
2026-05-07 04:09 42.82578 -32.60718 36230 ft 407 kts 263°
2026-05-07 04:09 42.81975 -32.68390 36228 ft 407 kts 263°
2026-05-07 04:10 42.81365 -32.76064 36232 ft 407 kts 263°
2026-05-07 04:10 42.80751 -32.83736 36236 ft 408 kts 263°
2026-05-07 04:11 42.80136 -32.91360 36238 ft 408 kts 263°
2026-05-07 04:11 42.79504 -32.99122 36232 ft 411 kts 263°
2026-05-07 04:12 42.78872 -33.06813 36240 ft 412 kts 263°
2026-05-07 04:12 42.78231 -33.14560 36247 ft 412 kts 263°
2026-05-07 04:13 42.77584 -33.22307 36252 ft 412 kts 263°
2026-05-07 04:13 42.76932 -33.30053 36244 ft 412 kts 263°
2026-05-07 04:14 42.76274 -33.37807 36256 ft 413 kts 263°
2026-05-07 04:14 42.75609 -33.45576 36253 ft 413 kts 263°
2026-05-07 04:15 42.74939 -33.53348 36255 ft 414 kts 263°
2026-05-07 04:15 42.74263 -33.61116 36254 ft 414 kts 263°
2026-05-07 04:16 42.73582 -33.68887 36254 ft 414 kts 263°
2026-05-07 04:16 42.72896 -33.76652 36272 ft 414 kts 263°
2026-05-07 04:17 42.72203 -33.84435 36264 ft 416 kts 263°
2026-05-07 04:17 42.71502 -33.92247 36267 ft 416 kts 263°
2026-05-07 04:18 42.70795 -34.00061 36266 ft 416 kts 263°
2026-05-07 04:18 42.70083 -34.07870 36273 ft 416 kts 263°
2026-05-07 04:19 42.69366 -34.15680 36264 ft 416 kts 263°
2026-05-07 04:19 42.68643 -34.23489 36276 ft 416 kts 263°
2026-05-07 04:20 42.67915 -34.31300 36268 ft 416 kts 263°
2026-05-07 04:20 42.67182 -34.39107 36274 ft 417 kts 263°
2026-05-07 04:21 42.66071 -34.50828 36278 ft 418 kts 263°
2026-05-07 04:21 42.65326 -34.58604 36275 ft 418 kts 263°
2026-05-07 04:22 42.64571 -34.66441 36285 ft 420 kts 263°
2026-05-07 04:22 42.63805 -34.74327 36288 ft 422 kts 263°
2026-05-07 04:23 42.63032 -34.82228 36282 ft 422 kts 263°
2026-05-07 04:23 42.62255 -34.90122 36292 ft 422 kts 263°
2026-05-07 04:24 42.61470 -34.98022 36292 ft 422 kts 263°
2026-05-07 04:24 42.60681 -35.05918 36294 ft 422 kts 263°
2026-05-07 04:25 42.59886 -35.13812 36296 ft 422 kts 263°
2026-05-07 04:25 42.59086 -35.21704 36301 ft 423 kts 264°
2026-05-07 04:26 42.58280 -35.29607 36297 ft 423 kts 264°
2026-05-07 04:26 42.57466 -35.37520 36308 ft 423 kts 264°
2026-05-07 04:27 42.56647 -35.45428 36313 ft 423 kts 263°
2026-05-07 04:27 42.55822 -35.53342 36310 ft 425 kts 264°
2026-05-07 04:28 42.54988 -35.61296 36304 ft 427 kts 264°
2026-05-07 04:28 42.54152 -35.69207 36312 ft 427 kts 264°
2026-05-07 04:29 42.53304 -35.77176 36307 ft 427 kts 264°
2026-05-07 04:29 42.52451 -35.85138 36314 ft 427 kts 264°
2026-05-07 04:30 42.51592 -35.93099 36295 ft 427 kts 264°
2026-05-07 04:30 42.50729 -36.01052 36320 ft 426 kts 264°
2026-05-07 04:31 42.49861 -36.08994 36326 ft 426 kts 264°
2026-05-07 04:31 42.48987 -36.16938 36324 ft 426 kts 264°
2026-05-07 04:32 42.48108 -36.24882 36335 ft 426 kts 264°
2026-05-07 04:32 42.47223 -36.32818 36324 ft 426 kts 264°
2026-05-07 04:33 42.46334 -36.40761 36335 ft 427 kts 265°
2026-05-07 04:33 42.45434 -36.48725 36341 ft 428 kts 264°
2026-05-07 04:34 42.44529 -36.56690 36343 ft 428 kts 264°
2026-05-07 04:34 42.43624 -36.64600 36346 ft 428 kts 264°
2026-05-07 04:35 42.42708 -36.72560 36341 ft 427 kts 265°
2026-05-07 04:35 42.41788 -36.80499 36344 ft 427 kts 265°
2026-05-07 04:36 42.40864 -36.88432 36347 ft 427 kts 265°
2026-05-07 04:36 42.39934 -36.96366 36347 ft 427 kts 265°
2026-05-07 04:37 42.38999 -37.04298 36351 ft 427 kts 265°
2026-05-07 04:37 42.38058 -37.12221 36357 ft 426 kts 265°
2026-05-07 04:38 42.37114 -37.20126 36357 ft 426 kts 265°
2026-05-07 04:38 42.36165 -37.28030 36360 ft 426 kts 265°
2026-05-07 04:39 42.35209 -37.35942 36357 ft 426 kts 265°
2026-05-07 04:39 42.34248 -37.43843 36340 ft 426 kts 265°
2026-05-07 04:40 42.33284 -37.51717 36358 ft 423 kts 265°
2026-05-07 04:40 42.32319 -37.59559 36360 ft 423 kts 265°
2026-05-07 04:41 42.31350 -37.67404 36360 ft 423 kts 265°
2026-05-07 04:41 42.30381 -37.75193 36366 ft 423 kts 265°
2026-05-07 04:42 42.29399 -37.83033 36365 ft 423 kts 265°
2026-05-07 04:42 42.28412 -37.90872 36367 ft 423 kts 265°
2026-05-07 04:43 42.27419 -37.98715 36368 ft 424 kts 265°
2026-05-07 04:43 42.26421 -38.06559 36371 ft 424 kts 265°
2026-05-07 04:44 42.25416 -38.14411 36371 ft 425 kts 265°
2026-05-07 04:44 42.24406 -38.22250 36371 ft 423 kts 265°
2026-05-07 04:45 42.23394 -38.30053 36378 ft 422 kts 265°
2026-05-07 04:45 42.22379 -38.37850 36374 ft 422 kts 265°
2026-05-07 04:46 42.21359 -38.45648 36380 ft 422 kts 265°
2026-05-07 04:46 42.20333 -38.53441 36367 ft 421 kts 265°
2026-05-07 04:47 42.19306 -38.61177 36385 ft 417 kts 265°
2026-05-07 04:47 42.18290 -38.68811 36386 ft 416 kts 265°
2026-05-07 04:48 42.17265 -38.76488 36386 ft 416 kts 265°
2026-05-07 04:48 42.16232 -38.84172 36387 ft 417 kts 265°
2026-05-07 04:49 42.15194 -38.91859 36392 ft 417 kts 265°
2026-05-07 04:49 42.14151 -38.99522 36394 ft 415 kts 265°
2026-05-07 04:50 42.13106 -39.07167 36398 ft 415 kts 265°
2026-05-07 04:50 42.12227 -39.13576 36401 ft 415 kts 265°
2026-05-07 04:51 42.11172 -39.21223 36399 ft 415 kts 265°
2026-05-07 04:51 42.10120 -39.28806 36395 ft 413 kts 265°
2026-05-07 04:52 42.09063 -39.36376 36399 ft 410 kts 265°
2026-05-07 04:52 42.08008 -39.43917 36405 ft 410 kts 265°
2026-05-07 04:53 42.06949 -39.51455 36401 ft 410 kts 265°
2026-05-07 04:53 42.05883 -39.58996 36401 ft 410 kts 265°
2026-05-07 04:54 42.04812 -39.66526 36409 ft 409 kts 265°
2026-05-07 04:54 42.03739 -39.74030 36406 ft 409 kts 264°
2026-05-07 04:55 42.02661 -39.81549 36416 ft 410 kts 264°
2026-05-07 04:55 42.01576 -39.89072 36417 ft 410 kts 264°
2026-05-07 04:56 42.00486 -39.96590 36404 ft 410 kts 264°
2026-05-07 04:56 41.98993 -40.04024 36422 ft 413 kts 259°
2026-05-07 04:57 41.97228 -40.11370 36422 ft 413 kts 258°
2026-05-07 04:57 41.95410 -40.18699 36424 ft 413 kts 258°
2026-05-07 04:58 41.93587 -40.26025 36425 ft 413 kts 258°
2026-05-07 04:58 41.91769 -40.33340 36422 ft 412 kts 258°
2026-05-07 04:59 41.89959 -40.40616 36425 ft 410 kts 258°
2026-05-07 04:59 41.88161 -40.47831 36427 ft 410 kts 258°
2026-05-07 05:00 41.86346 -40.55092 36435 ft 410 kts 258°
2026-05-07 05:00 41.84526 -40.62346 36421 ft 410 kts 258°
2026-05-07 05:01 41.82707 -40.69566 36438 ft 407 kts 258°
2026-05-07 05:01 41.80892 -40.76754 36437 ft 407 kts 258°
2026-05-07 05:02 41.79073 -40.83945 36441 ft 409 kts 257°
2026-05-07 05:02 41.77240 -40.91168 36441 ft 410 kts 257°
2026-05-07 05:03 41.75402 -40.98374 36441 ft 408 kts 257°
2026-05-07 05:03 41.73570 -41.05535 36442 ft 406 kts 257°
2026-05-07 05:04 41.71738 -41.12687 36441 ft 406 kts 257°
2026-05-07 05:04 41.69902 -41.19833 36451 ft 406 kts 257°
2026-05-07 05:05 41.68061 -41.26974 36448 ft 406 kts 257°
2026-05-07 05:05 41.66214 -41.34116 36451 ft 406 kts 257°
2026-05-07 05:06 41.64363 -41.41253 36454 ft 406 kts 257°
2026-05-07 05:06 41.62506 -41.48389 36452 ft 406 kts 257°
2026-05-07 05:07 41.60647 -41.55517 36424 ft 406 kts 257°
2026-05-07 05:07 41.58792 -41.62598 36447 ft 402 kts 257°
2026-05-07 05:08 41.56945 -41.69631 36461 ft 401 kts 257°
2026-05-07 05:08 41.55099 -41.76651 36460 ft 401 kts 257°
2026-05-07 05:09 41.53247 -41.83674 36460 ft 401 kts 257°
2026-05-07 05:09 41.51391 -41.90680 36453 ft 398 kts 257°
2026-05-07 05:10 41.49546 -41.97624 36461 ft 396 kts 257°
2026-05-07 05:10 41.47702 -42.04553 36461 ft 396 kts 257°
2026-05-07 05:11 41.45865 -42.11445 36464 ft 399 kts 257°
2026-05-07 05:11 41.43999 -42.18417 36458 ft 399 kts 257°
2026-05-07 05:12 41.42136 -42.25346 36465 ft 396 kts 257°
2026-05-07 05:12 41.40280 -42.32236 36469 ft 395 kts 257°
2026-05-07 05:13 41.38421 -42.39125 36468 ft 395 kts 257°
2026-05-07 05:13 41.36557 -42.46012 36465 ft 395 kts 257°
2026-05-07 05:14 41.34693 -42.52874 36471 ft 393 kts 257°
2026-05-07 05:14 41.32836 -42.59694 36471 ft 392 kts 257°
2026-05-07 05:15 41.30977 -42.66507 36478 ft 392 kts 257°
2026-05-07 05:15 41.29114 -42.73318 36471 ft 392 kts 257°
2026-05-07 05:16 41.27247 -42.80116 36471 ft 390 kts 257°
2026-05-07 05:16 41.25405 -42.86798 36472 ft 386 kts 257°
2026-05-07 05:17 41.23557 -42.93500 36476 ft 386 kts 257°
2026-05-07 05:17 41.21706 -43.00196 36475 ft 386 kts 257°
2026-05-07 05:18 41.19850 -43.06890 36453 ft 386 kts 257°
2026-05-07 05:18 41.17994 -43.13558 36480 ft 384 kts 257°
2026-05-07 05:19 41.16142 -43.20193 36477 ft 383 kts 257°
2026-05-07 05:19 41.14290 -43.26823 36482 ft 383 kts 257°
2026-05-07 05:20 41.12432 -43.33457 36480 ft 385 kts 256°
2026-05-07 05:20 41.10562 -43.40109 36478 ft 384 kts 257°
2026-05-07 05:21 41.07764 -43.50023 36478 ft 382 kts 257°
2026-05-07 05:22 41.05898 -43.56621 36481 ft 382 kts 257°
2026-05-07 05:22 41.04028 -43.63216 36481 ft 382 kts 256°
2026-05-07 05:23 41.02155 -43.69803 36480 ft 382 kts 256°
2026-05-07 05:23 41.00280 -43.76377 36485 ft 381 kts 256°
2026-05-07 05:24 40.98406 -43.82934 36482 ft 381 kts 256°
2026-05-07 05:24 40.96538 -43.89454 36485 ft 381 kts 256°
2026-05-07 05:25 40.94653 -43.96014 36485 ft 381 kts 256°
2026-05-07 05:25 40.92767 -44.02564 36487 ft 381 kts 256°
2026-05-07 05:26 40.90875 -44.09113 36487 ft 381 kts 256°
2026-05-07 05:26 40.88982 -44.15651 36486 ft 381 kts 256°
2026-05-07 05:27 40.87086 -44.22186 36487 ft 381 kts 256°
2026-05-07 05:27 40.85184 -44.28722 36486 ft 381 kts 256°
2026-05-07 05:28 40.83279 -44.35256 36487 ft 381 kts 256°
2026-05-07 05:28 40.81370 -44.41784 36487 ft 381 kts 256°
2026-05-07 05:29 40.79456 -44.48313 36489 ft 381 kts 256°
2026-05-07 05:29 40.77538 -44.54842 36456 ft 382 kts 255°
2026-05-07 05:30 40.75615 -44.61369 36500 ft 382 kts 255°
2026-05-07 05:30 40.73687 -44.67897 36487 ft 382 kts 255°
2026-05-07 05:31 40.71757 -44.74417 36485 ft 382 kts 255°
2026-05-07 05:31 40.69823 -44.80934 36496 ft 382 kts 255°
2026-05-07 05:32 40.67885 -44.87446 36488 ft 382 kts 255°
2026-05-07 05:32 40.65943 -44.93954 36480 ft 382 kts 255°
2026-05-07 05:33 40.63999 -45.00456 36491 ft 382 kts 255°
2026-05-07 05:33 40.62050 -45.06957 36492 ft 382 kts 255°
2026-05-07 05:34 40.60097 -45.13457 36461 ft 382 kts 255°
2026-05-07 05:34 40.58154 -45.19908 36489 ft 382 kts 255°
2026-05-07 05:35 40.56194 -45.26399 36491 ft 382 kts 254°
2026-05-07 05:35 40.54229 -45.32889 36490 ft 382 kts 254°
2026-05-07 05:36 40.52260 -45.39378 36490 ft 382 kts 254°
2026-05-07 05:36 40.50288 -45.45863 36487 ft 382 kts 254°
2026-05-07 05:37 40.48310 -45.52349 36489 ft 382 kts 254°
2026-05-07 05:37 40.46329 -45.58831 36489 ft 382 kts 254°
2026-05-07 05:38 40.44344 -45.65310 36488 ft 382 kts 254°
2026-05-07 05:38 40.42692 -45.70690 36474 ft 382 kts 253°
2026-05-07 05:39 40.40699 -45.77166 36491 ft 383 kts 253°
2026-05-07 05:39 40.38703 -45.83634 36485 ft 383 kts 253°
2026-05-07 05:40 40.36702 -45.90105 36502 ft 383 kts 253°
2026-05-07 05:40 40.34699 -45.96569 36487 ft 383 kts 253°
2026-05-07 05:41 40.32692 -46.03028 36488 ft 383 kts 253°
2026-05-07 05:41 40.30681 -46.09484 36490 ft 383 kts 253°
2026-05-07 05:42 40.28666 -46.15940 36488 ft 383 kts 253°
2026-05-07 05:42 40.26647 -46.22393 36487 ft 383 kts 253°
2026-05-07 05:43 40.24625 -46.28839 36478 ft 383 kts 253°
2026-05-07 05:43 40.22597 -46.35287 36487 ft 383 kts 253°
2026-05-07 05:44 40.20567 -46.41730 36487 ft 383 kts 253°
2026-05-07 05:44 40.18546 -46.48127 36487 ft 383 kts 253°
2026-05-07 05:45 40.16507 -46.54565 36474 ft 383 kts 252°
2026-05-07 05:45 40.14464 -46.61003 36481 ft 384 kts 252°
2026-05-07 05:46 40.12416 -46.67443 36486 ft 384 kts 252°
2026-05-07 05:46 40.10363 -46.73881 36482 ft 384 kts 252°
2026-05-07 05:47 40.08306 -46.80315 36486 ft 384 kts 252°
2026-05-07 05:47 40.06247 -46.86743 36484 ft 384 kts 252°
2026-05-07 05:48 40.04181 -46.93177 36484 ft 384 kts 252°
2026-05-07 05:48 40.02110 -46.99609 36484 ft 384 kts 252°
2026-05-07 05:49 40.00037 -47.06036 36484 ft 385 kts 252°
2026-05-07 05:49 39.97959 -47.12464 36484 ft 385 kts 252°
2026-05-07 05:50 39.95877 -47.18886 36484 ft 385 kts 252°
2026-05-07 05:50 39.93792 -47.25305 36484 ft 385 kts 251°
2026-05-07 05:51 39.91703 -47.31720 36481 ft 385 kts 251°
2026-05-07 05:51 39.89610 -47.38133 36467 ft 385 kts 251°
2026-05-07 05:52 39.87509 -47.44557 36482 ft 386 kts 251°
2026-05-07 05:52 39.85416 -47.50942 36481 ft 386 kts 251°
2026-05-07 05:53 39.83303 -47.57370 36478 ft 386 kts 251°
2026-05-07 05:53 39.81188 -47.63791 36478 ft 386 kts 251°
2026-05-07 05:54 39.79066 -47.70221 36477 ft 388 kts 251°
2026-05-07 05:54 39.76934 -47.76664 36477 ft 388 kts 251°
2026-05-07 05:55 39.74799 -47.83101 36476 ft 388 kts 250°
2026-05-07 05:55 39.72659 -47.89539 36477 ft 388 kts 250°
2026-05-07 05:56 39.70514 -47.95978 36469 ft 389 kts 250°
2026-05-07 05:56 39.68358 -48.02438 36473 ft 390 kts 250°
2026-05-07 05:57 39.66194 -48.08902 36468 ft 390 kts 250°
2026-05-07 05:57 39.64026 -48.15363 36468 ft 390 kts 250°
2026-05-07 05:58 39.61856 -48.21818 36463 ft 391 kts 250°
2026-05-07 05:58 39.59676 -48.28290 36466 ft 392 kts 250°
2026-05-07 05:59 39.57491 -48.34759 36464 ft 392 kts 250°
2026-05-07 05:59 39.55302 -48.41225 36465 ft 392 kts 250°
2026-05-07 06:00 39.53123 -48.47647 36457 ft 392 kts 249°
2026-05-07 06:00 39.50925 -48.54110 36463 ft 392 kts 249°
2026-05-07 06:01 39.48724 -48.60568 36453 ft 392 kts 249°
2026-05-07 06:01 39.46520 -48.67022 36454 ft 392 kts 249°
2026-05-07 06:02 39.44312 -48.73471 36447 ft 392 kts 249°
2026-05-07 06:02 39.42101 -48.79913 36453 ft 392 kts 249°
2026-05-07 06:03 39.39887 -48.86353 36452 ft 392 kts 249°
2026-05-07 06:03 39.37670 -48.92786 36451 ft 392 kts 249°
2026-05-07 06:04 39.35448 -48.99217 36451 ft 392 kts 249°
2026-05-07 06:04 39.33228 -49.05631 36464 ft 390 kts 248°
2026-05-07 06:05 39.31009 -49.12026 36455 ft 390 kts 248°
2026-05-07 06:05 39.28786 -49.18419 36447 ft 390 kts 248°
2026-05-07 06:06 39.26558 -49.24812 36435 ft 390 kts 248°
2026-05-07 06:06 39.24327 -49.31202 36444 ft 391 kts 248°
2026-05-07 06:07 39.22105 -49.37548 36442 ft 391 kts 248°
2026-05-07 06:07 39.19864 -49.43937 36443 ft 391 kts 248°
2026-05-07 06:08 39.17619 -49.50322 36443 ft 391 kts 248°
2026-05-07 06:08 39.15369 -49.56710 36441 ft 392 kts 248°
2026-05-07 06:09 39.13108 -49.63112 36442 ft 393 kts 248°
2026-05-07 06:09 39.10845 -49.69507 36442 ft 393 kts 248°
2026-05-07 06:10 39.08576 -49.75904 36441 ft 393 kts 248°
2026-05-07 06:10 39.06304 -49.82298 36440 ft 393 kts 248°
2026-05-07 06:11 39.04028 -49.88686 36438 ft 393 kts 248°
2026-05-07 06:11 39.01748 -49.95073 36435 ft 393 kts 247°
2026-05-07 06:12 38.99480 -50.01464 36437 ft 393 kts 248°
2026-05-07 06:12 38.97285 -50.07899 36447 ft 393 kts 248°
2026-05-07 06:13 38.95113 -50.14335 36433 ft 392 kts 248°
2026-05-07 06:13 38.92937 -50.20755 36432 ft 392 kts 248°
2026-05-07 06:14 38.90751 -50.27171 36427 ft 392 kts 248°
2026-05-07 06:14 38.88558 -50.33584 36428 ft 393 kts 248°
2026-05-07 06:15 38.86361 -50.39995 36424 ft 393 kts 248°
2026-05-07 06:15 38.84157 -50.46411 36425 ft 393 kts 248°
2026-05-07 06:16 38.81965 -50.52779 36424 ft 393 kts 248°
2026-05-07 06:16 38.79753 -50.59193 36422 ft 394 kts 247°
2026-05-07 06:17 38.77534 -50.65613 36419 ft 394 kts 247°
2026-05-07 06:17 38.75309 -50.72032 36419 ft 394 kts 247°
2026-05-07 06:18 38.73081 -50.78451 36417 ft 394 kts 247°
2026-05-07 06:18 38.70848 -50.84867 36416 ft 395 kts 247°
2026-05-07 06:19 38.68606 -50.91294 36417 ft 395 kts 247°
2026-05-07 06:19 38.66360 -50.97719 36411 ft 395 kts 247°
2026-05-07 06:20 38.64111 -51.04141 36413 ft 395 kts 247°
2026-05-07 06:20 38.61861 -51.10550 36407 ft 395 kts 246°
2026-05-07 06:21 38.59605 -51.16964 36405 ft 396 kts 246°
2026-05-07 06:21 38.57344 -51.23376 36406 ft 396 kts 246°
2026-05-07 06:22 38.55079 -51.29784 36409 ft 396 kts 246°
2026-05-07 06:22 38.51672 -51.39401 36408 ft 396 kts 246°
2026-05-07 06:23 38.49394 -51.45812 36406 ft 397 kts 246°
2026-05-07 06:23 38.47112 -51.52223 36399 ft 397 kts 246°
2026-05-07 06:24 38.44825 -51.58631 36393 ft 397 kts 246°
2026-05-07 06:24 38.42546 -51.65005 36394 ft 398 kts 246°
2026-05-07 06:25 38.40245 -51.71426 36393 ft 398 kts 246°
2026-05-07 06:25 38.37939 -51.77845 36395 ft 398 kts 246°
2026-05-07 06:26 38.35630 -51.84262 36388 ft 398 kts 246°
2026-05-07 06:26 38.33315 -51.90680 36387 ft 399 kts 246°
2026-05-07 06:27 38.30993 -51.97103 36389 ft 399 kts 245°
2026-05-07 06:27 38.28668 -52.03523 36379 ft 399 kts 245°
2026-05-07 06:28 38.26337 -52.09944 36370 ft 400 kts 245°
2026-05-07 06:28 38.24397 -52.15277 36379 ft 400 kts 245°
2026-05-07 06:29 38.22056 -52.21701 36379 ft 400 kts 245°
2026-05-07 06:29 38.19711 -52.28121 36379 ft 400 kts 245°
2026-05-07 06:30 38.17361 -52.34542 36376 ft 401 kts 245°
2026-05-07 06:30 38.15005 -52.40965 36371 ft 401 kts 245°
2026-05-07 06:31 38.12645 -52.47385 36371 ft 401 kts 245°
2026-05-07 06:31 38.10281 -52.53804 36376 ft 401 kts 245°
2026-05-07 06:32 38.07915 -52.60212 36355 ft 400 kts 245°
2026-05-07 06:32 38.05548 -52.66611 36366 ft 401 kts 245°
2026-05-07 06:33 38.03174 -52.73015 36363 ft 401 kts 245°
2026-05-07 06:33 38.00797 -52.79414 36365 ft 401 kts 244°
2026-05-07 06:34 37.98424 -52.85789 36350 ft 400 kts 244°
2026-05-07 06:34 37.96062 -52.92122 36357 ft 400 kts 244°
2026-05-07 06:35 37.93677 -52.98501 36354 ft 401 kts 244°
2026-05-07 06:35 37.91290 -53.04874 36357 ft 400 kts 244°
2026-05-07 06:36 37.88905 -53.11227 36343 ft 399 kts 244°
2026-05-07 06:36 37.86512 -53.17588 36346 ft 401 kts 244°
2026-05-07 06:37 37.84111 -53.23958 36347 ft 401 kts 244°
2026-05-07 06:37 37.81709 -53.30317 36344 ft 400 kts 244°
2026-05-07 06:38 37.79312 -53.36651 36331 ft 399 kts 244°
2026-05-07 06:38 37.76906 -53.42991 36336 ft 401 kts 244°
2026-05-07 06:39 37.74491 -53.49347 36335 ft 401 kts 244°
2026-05-07 06:39 37.72072 -53.55697 36331 ft 401 kts 244°
2026-05-07 06:40 37.69665 -53.62005 36308 ft 401 kts 244°
2026-05-07 06:40 37.67238 -53.68350 36327 ft 402 kts 244°
2026-05-07 06:41 37.64805 -53.74701 36335 ft 402 kts 243°
2026-05-07 06:41 37.62373 -53.81034 36320 ft 401 kts 243°
2026-05-07 06:42 37.59941 -53.87355 36322 ft 400 kts 243°
2026-05-07 06:42 37.57505 -53.93672 36316 ft 401 kts 243°
2026-05-07 06:43 37.55061 -53.99998 36328 ft 401 kts 243°
2026-05-07 06:43 37.52616 -54.06313 36308 ft 401 kts 243°
2026-05-07 06:44 37.50168 -54.12624 36309 ft 401 kts 243°
2026-05-07 06:44 37.47715 -54.18933 36306 ft 402 kts 243°
2026-05-07 06:45 37.45254 -54.25251 36321 ft 402 kts 243°
2026-05-07 06:45 37.42793 -54.31557 36301 ft 401 kts 242°
2026-05-07 06:46 37.40333 -54.37847 36298 ft 401 kts 242°
2026-05-07 06:46 37.37869 -54.44136 36294 ft 402 kts 242°
2026-05-07 06:47 37.35410 -54.50398 36313 ft 403 kts 242°
2026-05-07 06:47 37.32930 -54.56701 36292 ft 401 kts 242°
2026-05-07 06:48 37.30453 -54.62985 36292 ft 401 kts 242°
2026-05-07 06:48 37.27972 -54.69266 36278 ft 402 kts 242°
2026-05-07 06:49 37.25476 -54.75569 36303 ft 404 kts 242°
2026-05-07 06:49 37.22977 -54.81871 36290 ft 403 kts 242°
2026-05-07 06:50 37.20481 -54.88153 36287 ft 402 kts 242°
2026-05-07 06:50 37.17981 -54.94431 36278 ft 402 kts 241°
2026-05-07 06:51 37.15478 -55.00705 36279 ft 402 kts 241°
2026-05-07 06:51 37.12972 -55.06973 36280 ft 402 kts 241°
2026-05-07 06:52 37.10466 -55.13229 36274 ft 402 kts 241°
2026-05-07 06:52 37.07975 -55.19436 36270 ft 402 kts 241°
2026-05-07 06:53 37.05460 -55.25688 36270 ft 403 kts 241°
2026-05-07 06:53 37.02937 -55.31950 36267 ft 403 kts 240°
2026-05-07 06:54 37.00413 -55.38201 36265 ft 402 kts 240°
2026-05-07 06:54 36.97887 -55.44447 36264 ft 402 kts 240°
2026-05-07 06:55 36.95357 -55.50691 36259 ft 403 kts 240°
2026-05-07 06:55 36.92818 -55.56941 36262 ft 403 kts 240°
2026-05-07 06:56 36.90275 -55.63190 36264 ft 403 kts 240°
2026-05-07 06:56 36.87730 -55.69434 36257 ft 403 kts 240°
2026-05-07 06:57 36.85180 -55.75675 36257 ft 404 kts 240°
2026-05-07 06:57 36.82626 -55.81915 36256 ft 404 kts 239°
2026-05-07 06:58 36.80063 -55.88165 36248 ft 405 kts 239°
2026-05-07 06:58 36.77495 -55.94416 36247 ft 405 kts 239°
2026-05-07 06:59 36.74941 -56.00620 36250 ft 405 kts 239°
2026-05-07 06:59 36.72367 -56.06861 36245 ft 403 kts 239°
2026-05-07 07:00 36.69814 -56.13044 36241 ft 400 kts 239°
2026-05-07 07:00 36.67267 -56.19193 36243 ft 399 kts 239°
2026-05-07 07:01 36.64716 -56.25340 36238 ft 400 kts 239°
2026-05-07 07:01 36.62161 -56.31486 36229 ft 400 kts 239°
2026-05-07 07:02 36.59593 -56.37651 36230 ft 402 kts 239°
2026-05-07 07:02 36.57015 -56.43831 36223 ft 402 kts 239°
2026-05-07 07:03 36.54433 -56.50009 36224 ft 403 kts 239°
2026-05-07 07:03 36.51847 -56.56182 36221 ft 402 kts 239°
2026-05-07 07:04 36.49259 -56.62352 36222 ft 403 kts 238°
2026-05-07 07:04 36.46666 -56.68520 36217 ft 403 kts 238°
2026-05-07 07:05 36.44069 -56.74684 36216 ft 403 kts 238°
2026-05-07 07:05 36.41469 -56.80846 36206 ft 403 kts 238°
2026-05-07 07:06 36.38865 -56.87006 36210 ft 404 kts 238°
2026-05-07 07:06 36.36253 -56.93171 36203 ft 403 kts 238°
2026-05-07 07:07 36.33645 -56.99318 36203 ft 403 kts 238°
2026-05-07 07:07 36.31051 -57.05419 36205 ft 403 kts 238°
2026-05-07 07:08 36.28435 -57.11560 36214 ft 403 kts 237°
2026-05-07 07:08 36.25812 -57.17705 36200 ft 403 kts 237°
2026-05-07 07:09 36.23192 -57.23833 36196 ft 402 kts 237°
2026-05-07 07:09 36.20574 -57.29945 36195 ft 402 kts 237°
2026-05-07 07:10 36.17953 -57.36052 36188 ft 402 kts 237°
2026-05-07 07:10 36.15326 -57.42162 36193 ft 403 kts 237°
2026-05-07 07:11 36.12687 -57.48286 36170 ft 403 kts 236°
2026-05-07 07:11 36.10050 -57.54399 36171 ft 403 kts 236°
2026-05-07 07:12 36.07409 -57.60507 36174 ft 403 kts 236°
2026-05-07 07:12 36.04765 -57.66611 36185 ft 403 kts 236°
2026-05-07 07:13 36.02111 -57.72725 36169 ft 405 kts 236°
2026-05-07 07:13 35.99447 -57.78854 36162 ft 405 kts 236°
2026-05-07 07:14 35.96780 -57.84979 36163 ft 405 kts 236°
2026-05-07 07:14 35.94110 -57.91099 36157 ft 405 kts 236°
2026-05-07 07:15 35.91435 -57.97217 36158 ft 405 kts 236°
2026-05-07 07:15 35.88758 -58.03329 36151 ft 405 kts 236°
2026-05-07 07:16 35.86077 -58.09441 36136 ft 405 kts 236°
2026-05-07 07:16 35.83392 -58.15549 36146 ft 405 kts 236°
2026-05-07 07:17 35.80704 -58.21653 36147 ft 406 kts 235°
2026-05-07 07:17 35.78007 -58.27765 36130 ft 406 kts 235°
2026-05-07 07:18 35.75305 -58.33879 36132 ft 406 kts 235°
2026-05-07 07:18 35.73058 -58.38954 36122 ft 406 kts 235°
2026-05-07 07:19 35.69911 -58.46049 36121 ft 406 kts 235°
2026-05-07 07:19 35.67197 -58.52157 36113 ft 408 kts 235°
2026-05-07 07:20 35.64906 -58.57300 36111 ft 410 kts 235°
2026-05-07 07:20 35.62164 -58.63448 36102 ft 410 kts 234°
2026-05-07 07:21 35.59415 -58.69603 36101 ft 411 kts 234°
2026-05-07 07:21 35.56680 -58.75729 36094 ft 413 kts 234°
2026-05-07 07:22 35.53914 -58.81902 36095 ft 412 kts 234°
2026-05-07 07:22 35.51139 -58.88074 36084 ft 413 kts 234°
2026-05-07 07:23 35.48360 -58.94252 36098 ft 414 kts 234°
2026-05-07 07:23 35.45575 -59.00422 36076 ft 414 kts 234°
2026-05-07 07:24 35.42781 -59.06603 36113 ft 416 kts 234°
2026-05-07 07:24 35.39966 -59.12827 36088 ft 419 kts 234°
2026-05-07 07:25 35.35727 -59.22178 36088 ft 418 kts 234°
2026-05-07 07:26 35.32902 -59.28395 36084 ft 418 kts 234°
2026-05-07 07:26 35.30074 -59.34607 36089 ft 418 kts 234°
2026-05-07 07:27 35.27241 -59.40816 36082 ft 418 kts 234°
2026-05-07 07:27 35.24403 -59.47025 36080 ft 418 kts 234°
2026-05-07 07:28 35.21567 -59.53222 36077 ft 417 kts 234°
2026-05-07 07:28 35.18735 -59.59399 36072 ft 416 kts 233°
2026-05-07 07:29 35.15899 -59.65568 36077 ft 417 kts 234°
2026-05-07 07:29 35.13053 -59.71747 36077 ft 417 kts 234°
2026-05-07 07:30 35.10204 -59.77926 36073 ft 417 kts 234°
2026-05-07 07:30 35.07371 -59.84060 36072 ft 418 kts 234°
2026-05-07 07:31 35.04513 -59.90234 36088 ft 418 kts 233°
2026-05-07 07:31 35.01644 -59.96421 36071 ft 420 kts 233°
2026-05-07 07:32 34.99224 -60.02977 36070 ft 429 kts 242°
2026-05-07 07:32 34.97285 -60.09874 36067 ft 431 kts 244°
2026-05-07 07:33 34.95437 -60.16825 36067 ft 431 kts 244°
2026-05-07 07:33 34.93583 -60.23787 36062 ft 434 kts 244°
2026-05-07 07:34 34.91700 -60.30784 36072 ft 435 kts 244°
2026-05-07 07:34 34.89805 -60.37781 36069 ft 435 kts 244°
2026-05-07 07:35 34.87906 -60.44770 36069 ft 435 kts 244°
2026-05-07 07:35 34.85997 -60.51771 36072 ft 437 kts 245°
2026-05-07 07:36 34.84076 -60.58801 36070 ft 438 kts 245°
2026-05-07 07:36 34.82148 -60.65841 36079 ft 438 kts 245°
2026-05-07 07:37 34.80216 -60.72882 36076 ft 439 kts 245°
2026-05-07 07:37 34.78278 -60.79925 36094 ft 441 kts 246°
2026-05-07 07:38 34.76322 -60.87008 36086 ft 443 kts 246°
2026-05-07 07:38 34.74358 -60.94107 36086 ft 443 kts 246°
2026-05-07 07:39 34.72388 -61.01209 36089 ft 443 kts 246°
2026-05-07 07:39 34.70413 -61.08308 36087 ft 445 kts 247°
2026-05-07 07:40 34.68433 -61.15408 36086 ft 448 kts 247°
2026-05-07 07:40 34.66429 -61.22580 36107 ft 448 kts 247°
2026-05-07 07:41 34.64421 -61.29747 36087 ft 448 kts 247°
2026-05-07 07:41 34.62406 -61.36920 36094 ft 450 kts 249°
2026-05-07 07:42 34.60375 -61.44128 36097 ft 452 kts 248°
2026-05-07 07:42 34.58334 -61.51353 36103 ft 452 kts 248°
2026-05-07 07:43 34.56291 -61.58572 36102 ft 453 kts 248°
2026-05-07 07:43 34.54242 -61.65790 36101 ft 453 kts 248°
2026-05-07 07:44 34.52187 -61.73010 36105 ft 453 kts 248°
2026-05-07 07:44 34.50130 -61.80221 36103 ft 451 kts 248°
2026-05-07 07:45 34.48086 -61.87370 36105 ft 448 kts 248°
2026-05-07 07:45 34.46040 -61.94502 36111 ft 448 kts 249°
2026-05-07 07:46 34.43986 -62.01643 36104 ft 449 kts 249°
2026-05-07 07:46 34.41927 -62.08788 36110 ft 449 kts 249°
2026-05-07 07:47 34.39518 -62.15742 36109 ft 448 kts 242°
2026-05-07 07:47 34.36619 -62.22359 36109 ft 448 kts 240°
2026-05-07 07:48 34.33605 -62.28949 36117 ft 449 kts 241°
2026-05-07 07:48 34.30573 -62.35551 36112 ft 450 kts 241°
2026-05-07 07:49 34.27541 -62.42169 36114 ft 450 kts 241°
2026-05-07 07:49 34.24513 -62.48784 36113 ft 449 kts 241°
2026-05-07 07:50 34.21481 -62.55396 36113 ft 450 kts 242°
2026-05-07 07:50 34.18430 -62.62040 36116 ft 454 kts 242°
2026-05-07 07:51 34.15361 -62.68708 36123 ft 454 kts 242°
2026-05-07 07:51 34.12291 -62.75365 36119 ft 454 kts 242°
2026-05-07 07:52 34.09215 -62.82022 36124 ft 454 kts 242°
2026-05-07 07:52 34.06126 -62.88695 36118 ft 458 kts 243°
2026-05-07 07:53 34.03011 -62.95412 36127 ft 459 kts 243°
2026-05-07 07:53 33.99910 -63.02083 36129 ft 459 kts 243°
2026-05-07 07:54 33.96786 -63.08794 36129 ft 459 kts 243°
2026-05-07 07:54 33.93655 -63.15506 36128 ft 460 kts 243°
2026-05-07 07:55 33.90513 -63.22229 36128 ft 462 kts 244°
2026-05-07 07:55 33.87362 -63.28958 36130 ft 462 kts 244°
2026-05-07 07:56 33.84206 -63.35685 36132 ft 461 kts 244°
2026-05-07 07:56 33.81048 -63.42404 36137 ft 461 kts 244°
2026-05-07 07:57 33.77883 -63.49124 36141 ft 463 kts 244°
2026-05-07 07:57 33.74706 -63.55858 36134 ft 463 kts 244°
2026-05-07 07:58 33.71527 -63.62582 36142 ft 463 kts 244°
2026-05-07 07:58 33.68344 -63.69305 36137 ft 463 kts 244°
2026-05-07 07:59 33.65156 -63.76022 36139 ft 463 kts 245°
2026-05-07 07:59 33.61960 -63.82746 36140 ft 464 kts 245°
2026-05-07 08:00 33.58759 -63.89468 36140 ft 464 kts 245°
2026-05-07 08:00 33.55555 -63.96182 36144 ft 464 kts 245°
2026-05-07 08:01 33.52350 -64.02884 36147 ft 464 kts 245°
2026-05-07 08:01 33.49140 -64.09587 36148 ft 464 kts 246°
2026-05-07 08:02 33.45922 -64.16294 36152 ft 464 kts 245°
2026-05-07 08:02 33.42702 -64.22992 36140 ft 464 kts 246°
2026-05-07 08:03 33.39479 -64.29684 36154 ft 464 kts 246°
2026-05-07 08:03 33.36254 -64.36368 36143 ft 464 kts 246°
2026-05-07 08:04 33.33022 -64.43054 36161 ft 465 kts 246°
2026-05-07 08:04 33.29802 -64.49702 36161 ft 465 kts 246°
2026-05-07 08:05 33.26555 -64.56394 36159 ft 465 kts 246°
2026-05-07 08:05 33.23304 -64.63081 36161 ft 465 kts 246°
2026-05-07 08:06 33.20050 -64.69763 36162 ft 465 kts 246°
2026-05-07 08:06 33.16794 -64.76436 36167 ft 465 kts 246°
2026-05-07 08:07 33.13529 -64.83117 36163 ft 465 kts 246°
2026-05-07 08:07 33.10265 -64.89780 36149 ft 465 kts 246°
2026-05-07 08:08 33.07549 -64.95316 36169 ft 465 kts 246°
2026-05-07 08:08 33.04282 -65.01964 36165 ft 464 kts 246°
2026-05-07 08:09 33.01019 -65.08593 36167 ft 464 kts 246°
2026-05-07 08:09 32.97754 -65.15217 36168 ft 464 kts 246°
2026-05-07 08:10 32.94486 -65.21832 36170 ft 464 kts 246°
2026-05-07 08:10 32.91235 -65.28401 36171 ft 463 kts 246°
2026-05-07 08:11 32.87967 -65.34990 36173 ft 462 kts 246°
2026-05-07 08:11 32.84680 -65.41607 36176 ft 461 kts 246°
2026-05-07 08:12 32.81435 -65.48130 36176 ft 461 kts 246°
2026-05-07 08:12 32.78167 -65.54687 36181 ft 461 kts 246°
2026-05-07 08:13 32.74893 -65.61245 36177 ft 461 kts 246°
2026-05-07 08:13 32.71616 -65.67794 36183 ft 461 kts 246°
2026-05-07 08:14 32.68335 -65.74344 36183 ft 461 kts 246°
2026-05-07 08:14 32.65050 -65.80886 36184 ft 461 kts 246°
2026-05-07 08:15 32.61761 -65.87427 36184 ft 462 kts 246°
2026-05-07 08:15 32.58467 -65.93964 36153 ft 462 kts 246°
2026-05-07 08:16 32.55169 -66.00499 36183 ft 462 kts 246°
2026-05-07 08:16 32.51870 -66.07025 36181 ft 462 kts 246°
2026-05-07 08:17 32.48565 -66.13550 36184 ft 462 kts 246°
2026-05-07 08:17 32.45260 -66.20066 36187 ft 462 kts 246°
2026-05-07 08:18 32.41969 -66.26540 36178 ft 462 kts 246°
2026-05-07 08:18 32.38654 -66.33052 36187 ft 462 kts 246°
2026-05-07 08:19 32.35335 -66.39559 36189 ft 462 kts 246°
2026-05-07 08:19 32.32012 -66.46064 36189 ft 462 kts 246°
2026-05-07 08:20 32.28686 -66.52563 36189 ft 462 kts 246°
2026-05-07 08:20 32.25355 -66.59061 36180 ft 462 kts 246°
2026-05-07 08:21 32.22021 -66.65553 36186 ft 462 kts 246°
2026-05-07 08:21 32.18683 -66.72042 36189 ft 462 kts 246°
2026-05-07 08:22 32.15344 -66.78521 36192 ft 462 kts 246°
2026-05-07 08:22 32.12003 -66.84994 36192 ft 462 kts 246°
2026-05-07 08:23 32.08655 -66.91467 36183 ft 462 kts 246°
2026-05-07 08:23 32.05306 -66.97934 36192 ft 462 kts 246°
2026-05-07 08:24 32.01952 -67.04396 36193 ft 462 kts 245°
2026-05-07 08:24 31.98596 -67.10853 36195 ft 462 kts 245°
2026-05-07 08:25 31.95239 -67.17302 36195 ft 462 kts 245°
2026-05-07 08:25 31.91898 -67.23708 36187 ft 462 kts 245°
2026-05-07 08:26 31.86842 -67.33383 36189 ft 463 kts 245°
2026-05-07 08:26 31.83466 -67.39827 36196 ft 463 kts 245°
2026-05-07 08:27 31.80089 -67.46264 36198 ft 462 kts 245°
2026-05-07 08:27 31.76710 -67.52693 36193 ft 462 kts 245°
2026-05-07 08:28 31.73327 -67.59121 36192 ft 463 kts 245°
2026-05-07 08:28 31.69937 -67.65551 36195 ft 463 kts 245°
2026-05-07 08:29 31.66541 -67.71980 36189 ft 463 kts 245°
2026-05-07 08:29 31.63142 -67.78404 36192 ft 463 kts 245°
2026-05-07 08:30 31.59741 -67.84821 36194 ft 463 kts 245°
2026-05-07 08:30 31.56337 -67.91234 36193 ft 463 kts 245°
2026-05-07 08:31 31.52929 -67.97644 36197 ft 463 kts 245°
2026-05-07 08:31 31.49540 -68.04006 36194 ft 463 kts 245°
2026-05-07 08:32 31.46192 -68.10499 36194 ft 462 kts 247°
2026-05-07 08:32 31.43006 -68.16964 36194 ft 461 kts 247°
2026-05-07 08:33 31.39808 -68.23475 36194 ft 462 kts 247°
2026-05-07 08:33 31.36585 -68.29988 36194 ft 463 kts 247°
2026-05-07 08:34 31.33346 -68.36496 36198 ft 463 kts 247°
2026-05-07 08:34 31.30104 -68.42994 36199 ft 463 kts 247°
2026-05-07 08:35 31.26856 -68.49495 36196 ft 463 kts 247°
2026-05-07 08:35 31.23607 -68.55986 36196 ft 463 kts 247°
2026-05-07 08:36 31.20350 -68.62487 36195 ft 464 kts 247°
2026-05-07 08:36 31.17087 -68.68987 36195 ft 464 kts 247°
2026-05-07 08:37 31.13817 -68.75489 36196 ft 464 kts 247°
2026-05-07 08:37 31.10544 -68.81985 36200 ft 464 kts 247°
2026-05-07 08:38 31.07270 -68.88474 36188 ft 464 kts 247°
2026-05-07 08:38 31.03986 -68.94974 36195 ft 465 kts 247°
2026-05-07 08:39 31.00717 -69.01430 36200 ft 466 kts 247°
2026-05-07 08:39 30.97399 -69.07971 36196 ft 466 kts 247°
2026-05-07 08:40 30.94102 -69.14462 36193 ft 466 kts 247°
2026-05-07 08:40 30.90800 -69.20951 36196 ft 466 kts 247°
2026-05-07 08:41 30.87512 -69.27405 36193 ft 467 kts 247°
2026-05-07 08:41 30.84194 -69.33901 36190 ft 467 kts 247°
2026-05-07 08:42 30.80872 -69.40395 36198 ft 467 kts 247°
2026-05-07 08:42 30.77547 -69.46885 36195 ft 467 kts 247°
2026-05-07 08:43 30.74218 -69.53374 36179 ft 467 kts 247°
2026-05-07 08:43 30.70882 -69.59865 36197 ft 468 kts 247°
2026-05-07 08:44 30.67537 -69.66363 36198 ft 469 kts 247°
2026-05-07 08:44 30.64187 -69.72857 36193 ft 469 kts 247°
2026-05-07 08:45 30.60836 -69.79344 36195 ft 469 kts 247°
2026-05-07 08:45 30.57481 -69.85828 36193 ft 469 kts 247°
2026-05-07 08:46 30.54121 -69.92312 36186 ft 469 kts 247°
2026-05-07 08:46 30.50751 -69.98804 36198 ft 470 kts 247°
2026-05-07 08:47 30.47377 -70.05291 36202 ft 470 kts 247°
2026-05-07 08:47 30.44000 -70.11775 36203 ft 470 kts 247°
2026-05-07 08:48 30.40624 -70.18247 36194 ft 470 kts 247°
2026-05-07 08:48 30.37262 -70.24682 36194 ft 470 kts 247°
2026-05-07 08:49 30.33871 -70.31159 36192 ft 470 kts 247°
2026-05-07 08:49 30.30476 -70.37633 36192 ft 471 kts 247°
2026-05-07 08:50 30.27078 -70.44102 36191 ft 471 kts 246°
2026-05-07 08:50 30.23674 -70.50571 36192 ft 471 kts 246°
2026-05-07 08:51 30.20268 -70.57035 36190 ft 471 kts 246°
2026-05-07 08:51 30.16853 -70.63505 36192 ft 471 kts 246°
2026-05-07 08:52 30.13436 -70.69969 36192 ft 471 kts 246°
2026-05-07 08:52 30.10014 -70.76431 36192 ft 471 kts 246°
2026-05-07 08:53 30.06589 -70.82888 36190 ft 471 kts 246°
2026-05-07 08:53 30.03161 -70.89343 36183 ft 471 kts 246°
2026-05-07 08:54 29.99731 -70.95790 36192 ft 472 kts 246°
2026-05-07 08:54 29.96295 -71.02236 36188 ft 472 kts 246°
2026-05-07 08:55 29.92876 -71.08640 36189 ft 472 kts 246°
2026-05-07 08:55 29.89431 -71.15084 36189 ft 472 kts 246°
2026-05-07 08:56 29.85983 -71.21523 36183 ft 472 kts 246°
2026-05-07 08:56 29.82535 -71.27952 36185 ft 472 kts 246°
2026-05-07 08:57 29.79082 -71.34378 36187 ft 472 kts 246°
2026-05-07 08:57 29.75627 -71.40799 36187 ft 472 kts 246°
2026-05-07 08:58 29.72169 -71.47217 36184 ft 472 kts 246°
2026-05-07 08:58 29.68705 -71.53634 36185 ft 472 kts 246°
2026-05-07 08:59 29.65240 -71.60044 36184 ft 472 kts 246°
2026-05-07 08:59 29.62354 -71.65373 36184 ft 472 kts 246°
2026-05-07 09:00 29.58881 -71.71778 36186 ft 472 kts 246°
2026-05-07 09:00 29.55408 -71.78173 36182 ft 472 kts 246°
2026-05-07 09:01 29.51928 -71.84574 36186 ft 473 kts 246°
2026-05-07 09:01 29.48443 -71.90971 36173 ft 473 kts 246°
2026-05-07 09:02 29.44953 -71.97365 36183 ft 472 kts 246°
2026-05-07 09:02 29.41466 -72.03746 36181 ft 472 kts 246°
2026-05-07 09:03 29.37974 -72.10128 36178 ft 472 kts 246°
2026-05-07 09:03 29.34477 -72.16507 36179 ft 472 kts 246°
2026-05-07 09:04 29.30980 -72.22876 36178 ft 472 kts 246°
2026-05-07 09:04 29.27480 -72.29240 36180 ft 471 kts 246°
2026-05-07 09:05 29.23988 -72.35579 36172 ft 470 kts 246°
2026-05-07 09:05 29.20500 -72.41904 36176 ft 470 kts 246°
2026-05-07 09:06 29.17029 -72.48191 36168 ft 471 kts 246°
2026-05-07 09:06 29.13529 -72.54517 36175 ft 471 kts 246°
2026-05-07 09:07 29.10024 -72.60842 36155 ft 471 kts 246°
2026-05-07 09:07 29.06522 -72.67150 36169 ft 469 kts 246°
2026-05-07 09:08 29.03028 -72.73434 36162 ft 468 kts 246°
2026-05-07 09:08 28.99536 -72.79711 36167 ft 468 kts 246°
2026-05-07 09:09 28.96040 -72.85982 36161 ft 468 kts 246°
2026-05-07 09:09 28.92540 -72.92252 36158 ft 468 kts 246°
2026-05-07 09:10 28.89042 -72.98508 36157 ft 467 kts 246°
2026-05-07 09:10 28.85549 -73.04744 36159 ft 466 kts 246°
2026-05-07 09:11 28.82058 -73.10968 36157 ft 466 kts 246°
2026-05-07 09:11 28.78566 -73.17187 36153 ft 466 kts 246°
2026-05-07 09:12 28.75071 -73.23402 36151 ft 466 kts 246°
2026-05-07 09:12 28.71568 -73.29622 36153 ft 466 kts 246°
2026-05-07 09:13 28.68063 -73.35833 36149 ft 465 kts 245°
2026-05-07 09:13 28.64564 -73.42024 36148 ft 465 kts 245°
2026-05-07 09:14 28.61062 -73.48213 36155 ft 465 kts 245°
2026-05-07 09:14 28.57560 -73.54395 36146 ft 465 kts 245°
2026-05-07 09:15 28.54052 -73.60576 36151 ft 465 kts 245°
2026-05-07 09:15 28.50539 -73.66758 36138 ft 465 kts 245°
2026-05-07 09:16 28.47030 -73.72922 36145 ft 464 kts 245°
2026-05-07 09:16 28.43525 -73.79070 36143 ft 463 kts 245°
2026-05-07 09:17 28.40019 -73.85214 36140 ft 463 kts 245°
2026-05-07 09:17 28.36512 -73.91351 36137 ft 463 kts 245°
2026-05-07 09:18 28.33022 -73.97448 36136 ft 463 kts 245°
2026-05-07 09:18 28.29486 -74.03615 36116 ft 462 kts 245°
2026-05-07 09:19 28.25978 -74.09724 36135 ft 462 kts 245°
2026-05-07 09:19 28.22470 -74.15826 36133 ft 462 kts 245°
2026-05-07 09:20 28.18979 -74.21889 36130 ft 462 kts 245°
2026-05-07 09:20 28.15461 -74.27990 36129 ft 462 kts 245°
2026-05-07 09:21 28.11938 -74.34088 36131 ft 462 kts 245°
2026-05-07 09:21 28.08416 -74.40176 36121 ft 462 kts 245°
2026-05-07 09:22 28.04899 -74.46248 36119 ft 461 kts 245°
2026-05-07 09:22 28.01376 -74.52327 36125 ft 463 kts 245°
2026-05-07 09:23 27.97841 -74.58414 36124 ft 463 kts 245°
2026-05-07 09:23 27.94302 -74.64498 36121 ft 463 kts 245°
2026-05-07 09:24 27.90761 -74.70576 36118 ft 463 kts 245°
2026-05-07 09:24 27.87218 -74.76651 36121 ft 463 kts 245°
2026-05-07 09:25 27.83807 -74.82783 36120 ft 455 kts 251°
2026-05-07 09:25 27.81430 -74.89263 36110 ft 448 kts 257°
2026-05-07 09:26 27.79322 -74.95890 36116 ft 449 kts 258°
2026-05-07 09:26 27.77262 -75.02545 36116 ft 449 kts 258°
2026-05-07 09:27 27.75186 -75.09195 36110 ft 449 kts 258°
2026-05-07 09:28 27.72047 -75.19139 36114 ft 448 kts 258°
2026-05-07 09:28 27.69947 -75.25764 36111 ft 448 kts 258°
2026-05-07 09:29 27.67847 -75.32381 36111 ft 448 kts 258°
2026-05-07 09:29 27.65743 -75.38997 36111 ft 448 kts 258°
2026-05-07 09:30 27.63637 -75.45609 36107 ft 448 kts 257°
2026-05-07 09:30 27.61545 -75.52161 36104 ft 446 kts 257°
2026-05-07 09:31 27.59440 -75.58748 36106 ft 447 kts 257°
2026-05-07 09:31 27.57325 -75.65355 36101 ft 449 kts 257°
2026-05-07 09:32 27.55202 -75.71970 36103 ft 449 kts 257°
2026-05-07 09:32 27.53077 -75.78578 36093 ft 449 kts 257°
2026-05-07 09:33 27.50949 -75.85182 36099 ft 448 kts 257°
2026-05-07 09:33 27.48821 -75.91774 36100 ft 448 kts 257°
2026-05-07 09:34 27.46690 -75.98366 36100 ft 448 kts 257°
2026-05-07 09:34 27.44557 -76.04952 36100 ft 448 kts 257°
2026-05-07 09:35 27.42421 -76.11537 36097 ft 448 kts 257°
2026-05-07 09:35 27.40280 -76.18121 36096 ft 448 kts 257°
2026-05-07 09:36 27.38138 -76.24697 36094 ft 448 kts 257°
2026-05-07 09:36 27.35989 -76.31286 36097 ft 450 kts 256°
2026-05-07 09:37 27.33831 -76.37893 36100 ft 450 kts 256°
2026-05-07 09:37 27.31665 -76.44501 36099 ft 450 kts 256°
2026-05-07 09:38 27.29499 -76.51104 36090 ft 450 kts 256°
2026-05-07 09:38 27.27330 -76.57702 36097 ft 450 kts 256°
2026-05-07 09:39 27.25158 -76.64298 36096 ft 450 kts 256°
2026-05-07 09:39 27.22984 -76.70888 36097 ft 450 kts 256°
2026-05-07 09:40 27.20820 -76.77437 36096 ft 450 kts 256°
2026-05-07 09:40 27.18624 -76.84069 36098 ft 450 kts 256°
2026-05-07 09:41 27.16441 -76.90652 36092 ft 449 kts 256°
2026-05-07 09:41 27.14272 -76.97177 36096 ft 449 kts 256°
2026-05-07 09:42 27.12089 -77.03738 36094 ft 449 kts 256°
2026-05-07 09:42 27.09902 -77.10297 36093 ft 449 kts 256°
2026-05-07 09:43 27.07712 -77.16852 36091 ft 449 kts 256°
2026-05-07 09:43 27.05519 -77.23406 36103 ft 449 kts 256°
2026-05-07 09:44 27.03325 -77.29950 36091 ft 447 kts 256°
2026-05-07 09:44 27.01132 -77.36477 36090 ft 447 kts 256°
2026-05-07 09:45 26.98939 -77.42998 36093 ft 447 kts 256°
2026-05-07 09:45 26.96741 -77.49520 36104 ft 447 kts 256°
2026-05-07 09:46 26.94542 -77.56035 36089 ft 447 kts 256°
2026-05-07 09:46 26.92355 -77.62503 36082 ft 446 kts 255°
2026-05-07 09:47 26.90136 -77.69052 36092 ft 448 kts 255°
2026-05-07 09:47 26.87937 -77.75534 36090 ft 448 kts 255°
2026-05-07 09:48 26.85721 -77.82052 36092 ft 448 kts 255°
2026-05-07 09:48 26.83861 -77.87513 36099 ft 448 kts 255°
2026-05-07 09:49 26.81638 -77.94032 36095 ft 448 kts 255°
2026-05-07 09:49 26.79416 -78.00531 36094 ft 446 kts 255°
2026-05-07 09:50 26.77204 -78.06992 36091 ft 444 kts 255°
2026-05-07 09:50 26.75008 -78.13401 36097 ft 444 kts 255°
2026-05-07 09:51 26.72796 -78.19846 36096 ft 444 kts 255°
2026-05-07 09:51 26.70580 -78.26290 36098 ft 444 kts 255°
2026-05-07 09:52 26.68359 -78.32732 36087 ft 444 kts 255°
2026-05-07 09:52 26.66133 -78.39183 36093 ft 445 kts 255°
2026-05-07 09:53 26.63900 -78.45642 36105 ft 445 kts 255°
2026-05-07 09:53 26.61665 -78.52095 36106 ft 445 kts 255°
2026-05-07 09:54 26.59427 -78.58547 36107 ft 445 kts 255°
2026-05-07 09:54 26.57186 -78.64996 36111 ft 445 kts 255°
2026-05-07 09:55 26.54609 -78.71318 36108 ft 451 kts 247°
2026-05-07 09:55 26.51445 -78.77372 36092 ft 452 kts 245°
2026-05-07 09:56 26.48173 -78.83361 36090 ft 452 kts 245°
2026-05-07 09:56 26.44887 -78.89346 36086 ft 452 kts 245°
2026-05-07 09:57 26.41632 -78.95293 36088 ft 453 kts 245°
2026-05-07 09:57 26.38348 -79.01304 36087 ft 454 kts 245°
2026-05-07 09:58 26.35061 -79.07315 36090 ft 454 kts 244°
2026-05-07 09:58 26.31775 -79.13313 36093 ft 453 kts 244°
2026-05-07 09:59 26.28491 -79.19301 36092 ft 452 kts 244°
2026-05-07 09:59 26.25208 -79.25281 36091 ft 452 kts 244°
2026-05-07 10:00 26.21922 -79.31258 36096 ft 452 kts 244°
2026-05-07 10:00 26.18634 -79.37230 36097 ft 452 kts 244°
2026-05-07 10:01 26.15341 -79.43204 36088 ft 453 kts 244°
2026-05-07 10:01 26.12041 -79.49183 36092 ft 453 kts 244°
2026-05-07 10:02 26.08736 -79.55161 36093 ft 453 kts 244°
2026-05-07 10:02 26.05431 -79.61130 36094 ft 453 kts 244°
2026-05-07 10:03 26.02126 -79.67094 36091 ft 453 kts 244°
2026-05-07 10:03 25.98819 -79.73054 36089 ft 453 kts 244°
2026-05-07 10:04 25.95528 -79.78978 36087 ft 453 kts 244°
2026-05-07 10:04 25.92218 -79.84926 36087 ft 452 kts 243°
2026-05-07 10:05 25.88913 -79.90858 36072 ft 452 kts 243°
2026-05-07 10:05 25.85598 -79.96804 36088 ft 453 kts 243°
2026-05-07 10:06 25.82272 -80.02757 36088 ft 454 kts 243°
2026-05-07 10:06 25.78946 -80.08705 36083 ft 454 kts 243°
2026-05-07 10:07 25.75590 -80.14637 36074 ft 456 kts 240°
2026-05-07 10:07 25.71809 -80.20297 36087 ft 457 kts 238°
2026-05-07 10:08 25.67932 -80.25872 36082 ft 456 kts 237°
2026-05-07 10:08 25.64038 -80.31423 36084 ft 456 kts 237°
2026-05-07 10:09 25.60142 -80.36983 36084 ft 457 kts 237°
2026-05-07 10:09 25.56243 -80.42552 36075 ft 458 kts 237°
2026-05-07 10:10 25.52342 -80.48122 36072 ft 458 kts 237°
2026-05-07 10:10 25.48463 -80.53653 36073 ft 458 kts 237°
2026-05-07 10:11 25.44561 -80.59209 36070 ft 456 kts 237°
2026-05-07 10:11 25.40667 -80.64747 36062 ft 456 kts 237°
2026-05-07 10:12 25.36772 -80.70281 36067 ft 456 kts 237°
2026-05-07 10:12 25.32876 -80.75811 36062 ft 457 kts 237°
2026-05-07 10:13 25.28964 -80.81358 36067 ft 458 kts 237°
2026-05-07 10:13 25.25045 -80.86905 36067 ft 458 kts 237°
2026-05-07 10:14 25.21121 -80.92452 36067 ft 458 kts 236°
2026-05-07 10:14 25.17207 -80.97979 36069 ft 456 kts 236°
2026-05-07 10:15 25.13300 -81.03490 36070 ft 456 kts 236°
2026-05-07 10:15 25.09393 -81.08998 36073 ft 456 kts 236°
2026-05-07 10:16 25.05480 -81.14506 36064 ft 456 kts 236°
2026-05-07 10:16 25.01555 -81.20025 36076 ft 458 kts 236°
2026-05-07 10:17 24.97617 -81.25554 36076 ft 459 kts 236°
2026-05-07 10:17 24.93677 -81.31080 36074 ft 458 kts 236°
2026-05-07 10:18 24.89748 -81.36582 36074 ft 456 kts 236°
2026-05-07 10:18 24.85824 -81.42074 36072 ft 456 kts 236°
2026-05-07 10:19 24.81895 -81.47567 36072 ft 456 kts 236°
2026-05-07 10:19 24.77994 -81.53014 36072 ft 456 kts 236°
2026-05-07 10:20 24.74056 -81.58506 36076 ft 458 kts 236°
2026-05-07 10:20 24.70104 -81.64012 36075 ft 459 kts 236°
2026-05-07 10:21 24.66147 -81.69517 36080 ft 458 kts 236°
2026-05-07 10:21 24.62198 -81.75004 36080 ft 457 kts 236°
2026-05-07 10:22 24.58445 -81.80616 36094 ft 452 kts 245°
2026-05-07 10:22 24.55507 -81.86712 36091 ft 451 kts 246°
2026-05-07 10:23 24.52650 -81.92844 36087 ft 451 kts 246°
2026-05-07 10:23 24.49799 -81.98981 36079 ft 451 kts 246°
2026-05-07 10:24 24.46946 -82.05117 36072 ft 451 kts 246°
2026-05-07 10:24 24.44090 -82.11251 36066 ft 451 kts 246°
2026-05-07 10:25 24.41251 -82.17343 36061 ft 451 kts 246°
2026-05-07 10:25 24.38390 -82.23475 36061 ft 451 kts 246°
2026-05-07 10:26 24.35514 -82.29631 35753 ft 458 kts 246°
2026-05-07 10:26 24.34056 -82.32752 35064 ft 462 kts 246°
2026-05-07 10:26 24.32581 -82.35902 34256 ft 466 kts 246°
2026-05-07 10:26 24.31094 -82.39077 33361 ft 471 kts 246°
2026-05-07 10:27 24.29591 -82.42284 32455 ft 474 kts 246°
2026-05-07 10:27 24.28077 -82.45511 31564 ft 478 kts 245°
2026-05-07 10:27 24.26553 -82.48759 30653 ft 481 kts 245°
2026-05-07 10:27 24.25016 -82.52031 29739 ft 484 kts 245°
2026-05-07 10:28 24.23473 -82.55311 28876 ft 484 kts 245°
2026-05-07 10:28 24.21937 -82.58576 28160 ft 480 kts 245°
2026-05-07 10:28 24.20410 -82.61818 27433 ft 477 kts 245°
2026-05-07 10:28 24.18890 -82.65047 26646 ft 477 kts 245°
2026-05-07 10:29 24.17374 -82.68263 25973 ft 473 kts 245°
2026-05-07 10:29 24.15867 -82.71457 25281 ft 471 kts 245°
2026-05-07 10:29 24.14367 -82.74636 24612 ft 469 kts 245°
2026-05-07 10:30 24.11389 -82.80939 23322 ft 462 kts 245°
2026-05-07 10:30 24.09918 -82.84050 22627 ft 458 kts 245°
2026-05-07 10:30 24.08457 -82.87137 21928 ft 455 kts 245°
2026-05-07 10:30 24.07007 -82.90199 21238 ft 451 kts 245°
2026-05-07 10:31 24.05569 -82.93236 20588 ft 448 kts 245°
2026-05-07 10:31 24.04131 -82.96242 19930 ft 445 kts 243°
2026-05-07 10:31 24.02322 -82.98972 19272 ft 446 kts 227°
2026-05-07 10:31 23.99859 -83.01012 18663 ft 446 kts 209°
2026-05-07 10:32 23.96955 -83.02155 18002 ft 444 kts 191°
2026-05-07 10:32 23.93899 -83.02284 17348 ft 439 kts 172°
2026-05-07 10:32 23.90988 -83.01394 16733 ft 431 kts 153°
2026-05-07 10:32 23.88505 -82.99629 16123 ft 423 kts 139°
2026-05-07 10:33 23.86267 -82.97641 15542 ft 418 kts 139°
2026-05-07 10:33 23.83951 -82.95760 15024 ft 412 kts 142°
2026-05-07 10:33 23.81585 -82.94030 14522 ft 407 kts 144°
2026-05-07 10:33 23.79200 -82.92408 14027 ft 401 kts 146°
2026-05-07 10:34 23.76820 -82.90860 13498 ft 396 kts 147°
2026-05-07 10:34 23.74461 -82.89364 12985 ft 389 kts 147°
2026-05-07 10:34 23.72133 -82.87910 12504 ft 382 kts 148°
2026-05-07 10:34 23.69841 -82.86491 12023 ft 376 kts 148°
2026-05-07 10:35 23.67583 -82.85099 11550 ft 370 kts 148°
2026-05-07 10:35 23.65357 -82.83731 11091 ft 365 kts 148°
2026-05-07 10:35 23.63156 -82.82381 10677 ft 360 kts 149°
2026-05-07 10:35 23.61024 -82.81076 10570 ft 343 kts 149°
2026-05-07 10:36 23.58988 -82.79831 10463 ft 329 kts 149°
2026-05-07 10:36 23.57028 -82.78633 10294 ft 317 kts 148°
2026-05-07 10:36 23.55139 -82.77478 10170 ft 306 kts 149°
2026-05-07 10:36 23.53308 -82.76360 10027 ft 297 kts 148°
2026-05-07 10:37 23.51511 -82.75261 9688 ft 297 kts 148°
2026-05-07 10:37 23.49713 -82.74162 9342 ft 296 kts 148°
2026-05-07 10:37 23.47924 -82.73069 9018 ft 294 kts 149°
2026-05-07 10:37 23.46146 -82.71984 8702 ft 292 kts 149°
2026-05-07 10:38 23.44382 -82.70907 8373 ft 290 kts 150°
2026-05-07 10:38 23.43222 -82.70199 8166 ft 288 kts 150°
2026-05-07 10:38 23.41482 -82.69138 7854 ft 285 kts 150°
2026-05-07 10:38 23.39756 -82.68086 7540 ft 284 kts 150°
2026-05-07 10:39 23.38033 -82.67056 7229 ft 281 kts 153°
2026-05-07 10:39 23.36179 -82.66433 6923 ft 280 kts 174°
2026-05-07 10:39 23.34270 -82.66693 6611 ft 278 kts 200°
2026-05-07 10:39 23.32676 -82.67833 6295 ft 275 kts 224°
2026-05-07 10:40 23.31343 -82.69316 6026 ft 272 kts 229°
2026-05-07 10:40 23.30211 -82.70934 5829 ft 267 kts 233°
2026-05-07 10:40 23.29082 -82.72555 5593 ft 272 kts 230°
2026-05-07 10:40 23.27851 -82.74122 5352 ft 272 kts 227°
2026-05-07 10:41 23.26542 -82.75596 5127 ft 270 kts 223°
2026-05-07 10:41 23.25167 -82.76981 5012 ft 270 kts 219°
2026-05-07 10:41 23.23727 -82.78291 4883 ft 270 kts 216°
2026-05-07 10:41 23.22231 -82.79524 4769 ft 269 kts 214°
2026-05-07 10:42 23.20694 -82.80672 4652 ft 267 kts 211°
2026-05-07 10:42 23.19117 -82.81736 4518 ft 267 kts 209°
2026-05-07 10:42 23.17501 -82.82720 4404 ft 266 kts 206°
2026-05-07 10:42 23.15849 -82.83624 4278 ft 266 kts 204°
2026-05-07 10:43 23.14168 -82.84444 4156 ft 265 kts 201°
2026-05-07 10:43 23.12461 -82.85179 4037 ft 264 kts 199°
2026-05-07 10:43 23.10733 -82.85830 3914 ft 262 kts 196°
2026-05-07 10:43 23.08990 -82.86395 3791 ft 261 kts 193°
2026-05-07 10:44 23.07228 -82.86876 3675 ft 261 kts 191°
2026-05-07 10:44 23.05455 -82.87272 3552 ft 260 kts 189°
2026-05-07 10:44 23.03673 -82.87583 3432 ft 259 kts 186°
2026-05-07 10:44 23.01884 -82.87810 3312 ft 259 kts 184°
2026-05-07 10:45 23.00090 -82.87952 3198 ft 258 kts 181°
2026-05-07 10:45 22.98318 -82.88010 3079 ft 258 kts 179°
2026-05-07 10:45 22.96523 -82.87986 3031 ft 257 kts 176°
2026-05-07 10:45 22.94739 -82.87878 3016 ft 257 kts 175°
2026-05-07 10:46 22.92959 -82.87685 3000 ft 258 kts 173°
2026-05-07 10:46 22.91175 -82.87411 3002 ft 260 kts 170°
2026-05-07 10:46 22.89376 -82.87048 2998 ft 260 kts 167°
2026-05-07 10:46 22.87640 -82.86611 3010 ft 259 kts 165°
2026-05-07 10:47 22.85908 -82.86090 2998 ft 258 kts 162°
2026-05-07 10:47 22.84203 -82.85489 3003 ft 258 kts 160°
2026-05-07 10:47 22.82567 -82.84696 2996 ft 258 kts 148°
2026-05-07 10:47 22.81266 -82.83368 3011 ft 260 kts 124°
2026-05-07 10:48 22.80596 -82.81572 2990 ft 259 kts 99°
2026-05-07 10:48 22.80727 -82.79594 3003 ft 264 kts 75°
2026-05-07 10:48 22.81419 -82.77821 2993 ft 254 kts 64°
2026-05-07 10:48 22.82227 -82.76140 2992 ft 241 kts 63°
2026-05-07 10:49 22.82985 -82.74588 3008 ft 224 kts 64°
2026-05-07 10:49 22.83615 -82.73110 2994 ft 208 kts 71°
2026-05-07 10:49 22.84047 -82.71676 2999 ft 195 kts 76°
2026-05-07 10:49 22.84422 -82.70278 2996 ft 192 kts 77°
2026-05-07 10:50 22.84787 -82.68883 3001 ft 192 kts 77°
2026-05-07 10:50 22.85143 -82.67513 2996 ft 191 kts 76°
2026-05-07 10:50 22.85505 -82.66129 3002 ft 191 kts 76°
2026-05-07 10:50 22.85865 -82.64748 2998 ft 190 kts 77°
2026-05-07 10:51 22.86227 -82.63363 3006 ft 192 kts 77°
2026-05-07 10:51 22.86590 -82.61973 2999 ft 192 kts 75°
2026-05-07 10:51 22.86953 -82.60584 2998 ft 192 kts 77°
2026-05-07 10:51 22.87354 -82.59210 3003 ft 192 kts 69°
2026-05-07 10:52 22.87907 -82.57894 3001 ft 192 kts 65°
2026-05-07 10:52 22.88494 -82.56588 3003 ft 193 kts 65°
2026-05-07 10:52 22.89083 -82.55284 2969 ft 193 kts 65°
2026-05-07 10:52 22.89673 -82.53982 2747 ft 191 kts 66°
2026-05-07 10:53 22.90256 -82.52686 2489 ft 192 kts 68°
2026-05-07 10:53 22.90869 -82.51401 2230 ft 191 kts 58°
2026-05-07 10:53 22.91779 -82.50395 2014 ft 182 kts 45°
2026-05-07 10:53 22.92689 -82.49531 1851 ft 167 kts 39°
2026-05-07 10:54 22.93643 -82.48890 1641 ft 155 kts 31°
2026-05-07 10:54 22.94482 -82.48229 1402 ft 145 kts 51°
2026-05-07 10:54 22.95006 -82.47344 1193 ft 135 kts 68°
2026-05-07 10:54 22.95382 -82.46407 1021 ft 136 kts 66°
2026-05-07 10:55 22.95862 -82.45525 830 ft 135 kts 55°
2026-05-07 10:55 22.96398 -82.44694 708 ft 135 kts 55°
2026-05-07 10:55 22.96946 -82.43865 660 ft 136 kts 54°
2026-05-07 10:55 22.97505 -82.43031 405 ft 136 kts 55°
2026-05-07 10:56 22.98043 -82.42210 244 ft 131 kts 53°
2026-05-07 10:56 22.98542 -82.41476 225 ft 106 kts 56°
2026-05-07 10:56 22.98916 -82.40903 226 ft 80 kts 54°
2026-05-07 10:56 22.99163 -82.40530 220 ft 32 kts 54°
2026-05-07 10:57 22.99256 -82.40427 221 ft 14 kts 19°
2026-05-07 10:57 22.99334 -82.40412 222 ft 9 kts
2026-05-07 10:57 22.99389 -82.40403 229 ft 8 kts
2026-05-07 10:57 22.99445 -82.40396 225 ft 9 kts 358°
2026-05-07 10:58 22.99504 -82.40418 225 ft 9 kts 328°
2026-05-07 10:58 22.99561 -82.40462 227 ft 10 kts 324°
2026-05-07 10:58 22.99583 -82.40519 223 ft 8 kts 251°
2026-05-07 10:58 22.99550 -82.40575 223 ft 10 kts 234°
2026-05-07 10:59 22.99507 -82.40640 224 ft 11 kts 233°
2026-05-07 10:59 22.99487 -82.40686 225 ft 5 kts 271°
2026-05-07 10:59 22.99507 -82.40711 225 ft 5 kts 324°
2026-05-07 10:59 22.99539 -82.40733 222 ft 5 kts 342°
2026-05-07 11:00 22.99572 -82.40724 224 ft 5 kts 23°
2026-05-07 11:00 22.99602 -82.40708 228 ft 2 kts 28°
2026-05-07 11:00 22.99607 -82.40705 223 ft 1 kts 27°
2026-05-07 11:00 22.99612 -82.40701 223 ft 0 kts 30°